ECMWFNIL_prec_pwat_000.txt.gz
Precipitable_Water
0.65 0.65 0.55 0.49 0.50 0.53 0.57 0.58 0.60 0.60 0.56 0.57 0.58 0.60 0.61 0.62 0.57 0.54 0.56 0.56 0.54 0.52 0.50 0.48 0.46 0.45 0.44 0.43 0.43 0.43 0.44 0.44 0.44 0.45 0.44 0.43 0.42 0.40 0.38 0.37 0.35 0.36
0.69 0.70 0.63 0.57 0.52 0.54 0.58 0.61 0.62 0.61 0.58 0.57 0.58 0.61 0.62 0.67 0.61 0.61 0.58 0.57 0.56 0.56 0.53 0.52 0.49 0.48 0.47 0.46 0.45 0.45 0.45 0.45 0.43 0.45 0.44 0.44 0.45 0.43 0.39 0.37 0.36 0.34
0.78 0.74 0.72 0.67 0.61 0.58 0.57 0.59 0.61 0.61 0.62 0.61 0.59 0.61 0.63 0.67 0.63 0.65 0.63 0.62 0.60 0.58 0.55 0.53 0.51 0.49 0.47 0.46 0.45 0.45 0.44 0.43 0.43 0.45 0.46 0.43 0.43 0.43 0.42 0.42 0.39 0.35
0.78 0.79 0.78 0.75 0.70 0.65 0.59 0.57 0.58 0.62 0.63 0.66 0.63 0.65 0.67 0.65 0.68 0.67 0.66 0.65 0.65 0.62 0.59 0.56 0.53 0.51 0.49 0.48 0.48 0.46 0.45 0.45 0.44 0.44 0.44 0.43 0.42 0.42 0.39 0.40 0.36 0.37
0.80 0.80 0.81 0.80 0.77 0.75 0.71 0.63 0.59 0.60 0.63 0.65 0.67 0.67 0.67 0.67 0.69 0.70 0.70 0.68 0.68 0.66 0.64 0.60 0.58 0.54 0.52 0.51 0.50 0.47 0.46 0.45 0.45 0.45 0.43 0.42 0.40 0.39 0.38 0.38 0.35 0.36
0.83 0.83 0.82 0.81 0.80 0.80 0.76 0.71 0.64 0.61 0.63 0.66 0.69 0.69 0.67 0.68 0.69 0.72 0.73 0.72 0.71 0.70 0.67 0.65 0.62 0.60 0.58 0.56 0.53 0.51 0.49 0.47 0.44 0.44 0.43 0.42 0.42 0.41 0.38 0.39 0.37 0.36
0.85 0.88 0.84 0.83 0.81 0.80 0.78 0.76 0.73 0.68 0.65 0.68 0.73 0.72 0.70 0.69 0.70 0.72 0.75 0.76 0.74 0.73 0.71 0.68 0.66 0.64 0.63 0.61 0.59 0.56 0.53 0.49 0.47 0.45 0.44 0.43 0.42 0.43 0.42 0.39 0.36 0.35
0.82 0.88 0.89 0.86 0.84 0.82 0.79 0.78 0.77 0.73 0.71 0.69 0.71 0.75 0.75 0.73 0.70 0.73 0.75 0.76 0.77 0.76 0.74 0.72 0.70 0.68 0.66 0.66 0.63 0.59 0.56 0.55 0.51 0.47 0.45 0.44 0.44 0.41 0.42 0.41 0.40 0.37
0.92 0.89 0.86 0.88 0.85 0.84 0.82 0.80 0.80 0.81 0.80 0.73 0.70 0.74 0.78 0.78 0.75 0.76 0.76 0.76 0.78 0.78 0.77 0.74 0.71 0.70 0.68 0.68 0.67 0.65 0.61 0.59 0.57 0.54 0.50 0.47 0.45 0.44 0.42 0.42 0.41 0.38
0.96 0.97 0.95 0.94 0.91 0.86 0.81 0.83 0.84 0.85 0.85 0.83 0.78 0.78 0.79 0.81 0.80 0.81 0.78 0.77 0.79 0.79 0.78 0.75 0.74 0.73 0.71 0.70 0.68 0.68 0.66 0.64 0.62 0.60 0.56 0.52 0.48 0.46 0.44 0.43 0.41 0.39
0.94 0.93 0.92 0.95 0.98 1.00 0.95 0.92 0.89 0.88 0.89 0.85 0.84 0.84 0.83 0.84 0.84 0.85 0.80 0.79 0.78 0.76 0.75 0.73 0.73 0.73 0.72 0.71 0.69 0.69 0.68 0.68 0.67 0.64 0.61 0.58 0.54 0.51 0.46 0.45 0.42 0.41
0.90 0.91 0.94 0.96 0.99 0.99 0.96 0.94 0.93 0.92 0.88 0.85 0.84 0.85 0.87 0.87 0.87 0.87 0.84 0.80 0.78 0.75 0.72 0.72 0.73 0.73 0.73 0.71 0.69 0.69 0.69 0.68 0.68 0.67 0.66 0.61 0.58 0.53 0.49 0.46 0.44 0.42
0.83 0.92 0.98 1.03 1.05 1.04 1.01 0.96 0.93 0.94 0.92 0.89 0.88 0.89 0.90 0.88 0.88 0.88 0.89 0.86 0.82 0.76 0.72 0.71 0.71 0.72 0.72 0.71 0.70 0.69 0.70 0.69 0.68 0.66 0.65 0.63 0.59 0.55 0.52 0.49 0.45 0.44
0.79 0.84 0.88 0.94 1.00 1.03 1.04 1.02 0.99 0.95 0.94 0.92 0.91 0.89 0.88 0.88 0.88 0.89 0.91 0.92 0.86 0.78 0.75 0.72 0.70 0.69 0.71 0.70 0.69 0.71 0.71 0.70 0.68 0.65 0.61 0.60 0.58 0.55 0.54 0.53 0.50 0.46
0.72 0.75 0.78 0.82 0.84 0.85 0.86 0.89 0.93 0.96 0.95 0.93 0.91 0.90 0.89 0.89 0.89 0.91 0.87 0.83 0.82 0.81 0.80 0.76 0.72 0.68 0.70 0.71 0.68 0.70 0.71 0.69 0.65 0.62 0.60 0.58 0.57 0.56 0.55 0.53 0.52 0.52
0.64 0.68 0.71 0.72 0.73 0.72 0.73 0.77 0.79 0.81 0.83 0.85 0.88 0.88 0.89 0.91 0.89 0.90 0.86 0.86 0.85 0.86 0.86 0.82 0.77 0.71 0.70 0.70 0.70 0.69 0.69 0.66 0.64 0.62 0.59 0.57 0.56 0.55 0.55 0.53 0.52 0.51
0.58 0.60 0.65 0.66 0.68 0.70 0.71 0.71 0.75 0.76 0.75 0.75 0.78 0.80 0.85 0.86 0.85 0.85 0.87 0.90 0.87 0.87 0.85 0.82 0.80 0.75 0.70 0.68 0.67 0.68 0.68 0.66 0.62 0.59 0.57 0.54 0.52 0.52 0.53 0.52 0.52 0.53
0.56 0.59 0.63 0.68 0.70 0.68 0.69 0.71 0.72 0.73 0.73 0.73 0.72 0.72 0.76 0.79 0.83 0.82 0.82 0.82 0.84 0.84 0.84 0.88 0.87 0.80 0.71 0.67 0.67 0.69 0.69 0.66 0.60 0.56 0.52 0.51 0.51 0.50 0.51 0.50 0.49 0.51
0.45 0.47 0.49 0.53 0.60 0.63 0.65 0.67 0.66 0.67 0.68 0.69 0.70 0.70 0.71 0.73 0.76 0.81 0.82 0.82 0.82 0.81 0.84 0.80 0.80 0.82 0.76 0.75 0.73 0.70 0.64 0.61 0.57 0.54 0.51 0.50 0.50 0.50 0.50 0.50 0.48 0.49
0.41 0.42 0.43 0.45 0.49 0.55 0.57 0.58 0.58 0.60 0.62 0.64 0.65 0.69 0.70 0.70 0.74 0.78 0.83 0.83 0.81 0.79 0.80 0.83 0.80 0.77 0.70 0.71 0.69 0.62 0.56 0.55 0.55 0.53 0.51 0.51 0.51 0.50 0.50 0.51 0.51 0.49
0.40 0.40 0.39 0.40 0.41 0.44 0.46 0.47 0.49 0.51 0.54 0.57 0.58 0.60 0.66 0.69 0.72 0.75 0.78 0.80 0.80 0.81 0.79 0.76 0.71 0.68 0.72 0.70 0.61 0.55 0.53 0.52 0.53 0.52 0.50 0.49 0.48 0.48 0.48 0.47 0.48 0.49
0.38 0.37 0.37 0.37 0.38 0.40 0.41 0.40 0.43 0.45 0.46 0.51 0.54 0.55 0.59 0.67 0.71 0.73 0.74 0.77 0.81 0.82 0.81 0.78 0.76 0.74 0.68 0.60 0.56 0.53 0.51 0.50 0.51 0.51 0.48 0.44 0.43 0.44 0.45 0.46 0.46 0.47
0.37 0.36 0.36 0.36 0.37 0.37 0.39 0.41 0.41 0.43 0.45 0.50 0.50 0.51 0.53 0.58 0.63 0.69 0.73 0.74 0.73 0.74 0.73 0.72 0.69 0.67 0.66 0.62 0.55 0.52 0.49 0.49 0.49 0.47 0.45 0.44 0.43 0.44 0.44 0.44 0.44 0.45
0.35 0.35 0.34 0.34 0.36 0.37 0.40 0.43 0.44 0.45 0.46 0.49 0.48 0.48 0.50 0.54 0.59 0.63 0.67 0.69 0.71 0.71 0.72 0.72 0.71 0.66 0.61 0.56 0.55 0.54 0.53 0.51 0.48 0.45 0.44 0.44 0.44 0.43 0.42 0.42 0.43 0.43
0.36 0.35 0.35 0.34 0.34 0.36 0.39 0.41 0.42 0.44 0.48 0.52 0.51 0.51 0.53 0.57 0.59 0.61 0.64 0.66 0.69 0.71 0.70 0.66 0.63 0.58 0.56 0.56 0.56 0.55 0.52 0.49 0.46 0.44 0.43 0.42 0.40 0.39 0.39 0.39 0.40 0.41
0.39 0.38 0.37 0.37 0.36 0.37 0.40 0.43 0.45 0.46 0.47 0.50 0.52 0.53 0.56 0.59 0.58 0.60 0.62 0.66 0.71 0.72 0.69 0.66 0.62 0.59 0.58 0.57 0.55 0.51 0.48 0.46 0.44 0.41 0.38 0.37 0.37 0.37 0.36 0.37 0.38 0.38

ECMWFNIL_prec_pwat_003.txt.gz
Precipitable_Water
0.71 0.68 0.65 0.60 0.58 0.61 0.60 0.57 0.60 0.60 0.56 0.59 0.62 0.63 0.63 0.62 0.56 0.59 0.58 0.53 0.50 0.46 0.45 0.45 0.45 0.44 0.44 0.44 0.46 0.47 0.46 0.44 0.45 0.44 0.43 0.41 0.38 0.37 0.36 0.36 0.36 0.34
0.73 0.71 0.68 0.66 0.62 0.63 0.67 0.63 0.63 0.64 0.59 0.58 0.65 0.67 0.71 0.70 0.62 0.65 0.62 0.58 0.52 0.51 0.47 0.46 0.46 0.45 0.45 0.45 0.45 0.45 0.44 0.44 0.41 0.44 0.44 0.45 0.45 0.42 0.37 0.39 0.34 0.33
0.75 0.74 0.72 0.69 0.68 0.68 0.70 0.69 0.66 0.67 0.63 0.62 0.66 0.69 0.72 0.74 0.66 0.67 0.68 0.65 0.61 0.56 0.52 0.49 0.47 0.47 0.46 0.45 0.46 0.46 0.46 0.45 0.45 0.47 0.45 0.40 0.43 0.41 0.40 0.39 0.36 0.37
0.77 0.77 0.80 0.79 0.74 0.73 0.74 0.76 0.72 0.68 0.67 0.66 0.66 0.69 0.73 0.77 0.71 0.71 0.71 0.69 0.69 0.65 0.61 0.57 0.52 0.49 0.48 0.47 0.46 0.46 0.44 0.46 0.45 0.45 0.45 0.45 0.44 0.41 0.38 0.37 0.34 0.36
0.77 0.81 0.86 0.87 0.87 0.84 0.81 0.80 0.79 0.76 0.73 0.72 0.69 0.69 0.72 0.76 0.72 0.74 0.73 0.72 0.74 0.71 0.68 0.65 0.62 0.60 0.57 0.54 0.55 0.51 0.49 0.48 0.46 0.50 0.48 0.45 0.44 0.43 0.42 0.42 0.38 0.39
0.83 0.83 0.87 0.85 0.90 0.91 0.89 0.84 0.82 0.79 0.77 0.77 0.76 0.72 0.73 0.76 0.73 0.75 0.74 0.73 0.76 0.75 0.72 0.70 0.67 0.66 0.65 0.65 0.63 0.63 0.60 0.59 0.55 0.53 0.51 0.49 0.48 0.46 0.44 0.44 0.42 0.44
0.85 0.89 0.90 0.88 0.88 0.91 0.93 0.94 0.91 0.85 0.81 0.83 0.83 0.80 0.77 0.77 0.74 0.76 0.75 0.75 0.75 0.76 0.75 0.72 0.70 0.69 0.68 0.69 0.67 0.65 0.65 0.65 0.61 0.60 0.57 0.56 0.54 0.48 0.47 0.44 0.42 0.41
0.89 0.92 0.96 1.04 0.93 0.90 0.91 1.01 1.00 0.83 0.85 0.88 0.84 0.86 0.85 0.83 0.75 0.76 0.77 0.77 0.75 0.77 0.77 0.76 0.74 0.71 0.70 0.69 0.69 0.67 0.65 0.64 0.62 0.62 0.62 0.61 0.57 0.57 0.57 0.52 0.47 0.46
0.97 0.92 0.91 0.92 0.93 0.87 0.90 0.91 0.95 1.00 1.05 0.90 0.85 0.87 0.90 0.88 0.83 0.79 0.78 0.78 0.77 0.76 0.77 0.77 0.76 0.74 0.72 0.68 0.68 0.68 0.66 0.65 0.64 0.61 0.61 0.61 0.59 0.59 0.58 0.60 0.55 0.54
1.01 1.03 1.02 1.00 0.98 0.90 0.87 0.90 0.92 0.94 0.94 0.92 0.98 0.97 0.94 0.91 0.87 0.87 0.83 0.81 0.80 0.79 0.78 0.77 0.76 0.73 0.71 0.68 0.66 0.65 0.66 0.67 0.67 0.65 0.63 0.64 0.63 0.62 0.59 0.59 0.58 0.56
1.00 1.01 1.04 1.07 1.08 1.06 1.02 1.03 1.03 0.99 0.93 0.89 0.94 0.91 0.89 1.00 1.00 0.91 0.86 0.86 0.85 0.83 0.81 0.79 0.77 0.73 0.70 0.68 0.68 0.68 0.66 0.67 0.67 0.67 0.66 0.65 0.64 0.63 0.62 0.60 0.59 0.57
0.98 1.02 1.05 1.07 1.03 1.03 1.07 1.09 1.10 1.08 1.08 1.06 1.04 0.99 0.97 0.92 0.96 1.00 0.95 0.89 0.87 0.87 0.85 0.84 0.84 0.80 0.77 0.72 0.69 0.70 0.69 0.68 0.67 0.67 0.67 0.66 0.66 0.65 0.63 0.61 0.60 0.59
0.92 0.98 1.03 1.06 1.05 1.05 1.08 1.08 1.10 1.09 1.05 1.00 0.99 0.97 0.98 0.96 0.93 0.86 0.95 0.97 0.90 0.91 0.89 0.88 0.88 0.85 0.82 0.78 0.73 0.70 0.70 0.68 0.65 0.64 0.65 0.64 0.64 0.63 0.63 0.61 0.59 0.58
0.74 0.78 0.85 0.89 0.90 0.93 0.99 1.06 1.10 1.09 1.08 1.07 1.03 1.00 1.00 1.00 0.94 0.92 0.90 0.98 0.98 0.95 0.93 0.91 0.87 0.84 0.85 0.85 0.81 0.78 0.73 0.70 0.68 0.66 0.64 0.63 0.62 0.59 0.59 0.59 0.57 0.56
0.70 0.74 0.77 0.83 0.82 0.85 0.84 0.84 0.81 0.87 0.96 1.00 0.97 0.94 0.97 1.04 1.05 0.98 0.97 0.99 0.96 0.96 0.93 0.93 0.88 0.84 0.82 0.83 0.86 0.84 0.78 0.76 0.75 0.72 0.68 0.64 0.61 0.58 0.58 0.57 0.57 0.55
0.62 0.67 0.73 0.74 0.77 0.79 0.78 0.80 0.83 0.86 0.84 0.87 0.92 0.94 0.95 0.97 0.98 1.00 0.97 0.93 0.92 0.92 0.92 0.93 0.87 0.83 0.82 0.85 0.87 0.84 0.80 0.76 0.72 0.69 0.68 0.66 0.64 0.60 0.59 0.57 0.56 0.55
0.52 0.53 0.54 0.57 0.65 0.69 0.71 0.74 0.77 0.80 0.81 0.79 0.78 0.85 0.88 0.91 0.92 0.89 0.88 0.90 0.87 0.90 0.92 0.89 0.87 0.85 0.84 0.84 0.84 0.85 0.84 0.77 0.70 0.67 0.66 0.65 0.66 0.64 0.61 0.59 0.56 0.52
0.51 0.51 0.51 0.51 0.53 0.58 0.63 0.67 0.68 0.71 0.76 0.78 0.79 0.79 0.80 0.83 0.85 0.85 0.87 0.89 0.87 0.85 0.85 0.89 0.87 0.85 0.83 0.84 0.83 0.81 0.80 0.74 0.68 0.65 0.65 0.64 0.65 0.68 0.65 0.61 0.55 0.50
0.53 0.52 0.51 0.52 0.53 0.55 0.60 0.66 0.67 0.67 0.66 0.68 0.70 0.72 0.70 0.68 0.71 0.73 0.79 0.84 0.83 0.82 0.82 0.83 0.77 0.81 0.82 0.82 0.80 0.80 0.78 0.75 0.69 0.65 0.68 0.70 0.68 0.66 0.60 0.56 0.51 0.47
0.54 0.53 0.52 0.52 0.51 0.50 0.51 0.54 0.61 0.61 0.60 0.59 0.59 0.60 0.58 0.58 0.62 0.64 0.70 0.75 0.79 0.80 0.83 0.77 0.73 0.71 0.75 0.79 0.79 0.79 0.76 0.75 0.75 0.68 0.66 0.63 0.61 0.61 0.62 0.60 0.52 0.47
0.50 0.49 0.48 0.48 0.48 0.48 0.48 0.49 0.51 0.54 0.54 0.53 0.52 0.54 0.57 0.58 0.58 0.59 0.65 0.71 0.77 0.82 0.75 0.68 0.72 0.74 0.77 0.79 0.79 0.79 0.79 0.76 0.70 0.65 0.66 0.65 0.63 0.65 0.63 0.56 0.50 0.46
0.46 0.44 0.44 0.44 0.44 0.44 0.44 0.44 0.48 0.53 0.53 0.54 0.50 0.50 0.52 0.53 0.57 0.58 0.60 0.68 0.74 0.72 0.66 0.65 0.67 0.70 0.71 0.70 0.68 0.64 0.61 0.64 0.69 0.70 0.67 0.64 0.63 0.60 0.57 0.55 0.51 0.48
0.43 0.42 0.41 0.41 0.41 0.41 0.43 0.44 0.47 0.51 0.54 0.55 0.52 0.50 0.50 0.49 0.49 0.54 0.60 0.66 0.66 0.67 0.58 0.58 0.62 0.65 0.66 0.66 0.65 0.65 0.63 0.63 0.64 0.63 0.60 0.62 0.64 0.63 0.60 0.55 0.52 0.51
0.43 0.42 0.41 0.40 0.40 0.39 0.40 0.43 0.46 0.51 0.52 0.54 0.51 0.49 0.47 0.50 0.54 0.57 0.63 0.66 0.65 0.61 0.56 0.54 0.58 0.62 0.64 0.61 0.58 0.57 0.58 0.60 0.62 0.60 0.59 0.61 0.62 0.60 0.57 0.53 0.53 0.51
0.44 0.44 0.43 0.43 0.41 0.40 0.40 0.40 0.43 0.48 0.52 0.53 0.54 0.53 0.50 0.51 0.55 0.59 0.64 0.66 0.63 0.62 0.54 0.54 0.58 0.59 0.57 0.54 0.53 0.53 0.56 0.61 0.63 0.64 0.59 0.56 0.54 0.53 0.53 0.53 0.52 0.51
0.42 0.43 0.45 0.46 0.45 0.43 0.43 0.41 0.42 0.45 0.50 0.52 0.53 0.53 0.53 0.54 0.58 0.63 0.63 0.65 0.63 0.59 0.56 0.54 0.54 0.53 0.52 0.50 0.50 0.51 0.53 0.56 0.55 0.54 0.51 0.50 0.51 0.50 0.49 0.48 0.48 0.45

ECMWFNIL_prec_pwat_006.txt.gz
Precipitable_Water
0.67 0.66 0.61 0.62 0.58 0.58 0.57 0.62 0.61 0.61 0.60 0.62 0.60 0.59 0.58 0.57 0.52 0.55 0.53 0.49 0.45 0.44 0.45 0.44 0.43 0.44 0.47 0.49 0.49 0.46 0.45 0.43 0.42 0.42 0.37 0.37 0.36 0.34 0.33 0.31 0.31 0.34
0.68 0.68 0.65 0.62 0.62 0.64 0.63 0.64 0.65 0.63 0.63 0.68 0.68 0.67 0.67 0.63 0.59 0.63 0.57 0.51 0.46 0.46 0.46 0.44 0.44 0.42 0.43 0.44 0.44 0.41 0.40 0.40 0.39 0.41 0.43 0.42 0.38 0.36 0.34 0.31 0.32 0.35
0.70 0.71 0.67 0.66 0.64 0.69 0.71 0.71 0.73 0.69 0.65 0.67 0.75 0.74 0.71 0.69 0.64 0.68 0.66 0.59 0.55 0.52 0.48 0.48 0.47 0.48 0.48 0.46 0.47 0.46 0.43 0.43 0.42 0.44 0.44 0.42 0.41 0.36 0.37 0.37 0.36 0.34
0.74 0.74 0.72 0.73 0.71 0.74 0.78 0.77 0.79 0.76 0.74 0.65 0.75 0.77 0.77 0.74 0.71 0.70 0.70 0.67 0.66 0.62 0.59 0.56 0.54 0.54 0.53 0.51 0.53 0.52 0.49 0.51 0.50 0.50 0.45 0.45 0.46 0.44 0.42 0.39 0.38 0.38
0.80 0.79 0.77 0.78 0.76 0.79 0.81 0.81 0.80 0.79 0.76 0.73 0.76 0.79 0.82 0.78 0.74 0.73 0.70 0.69 0.71 0.68 0.67 0.64 0.63 0.60 0.58 0.56 0.59 0.58 0.57 0.59 0.58 0.56 0.56 0.54 0.53 0.50 0.49 0.47 0.43 0.43
0.86 0.86 0.85 0.84 0.80 0.81 0.81 0.81 0.84 0.83 0.82 0.78 0.78 0.79 0.83 0.82 0.78 0.75 0.73 0.71 0.72 0.71 0.69 0.68 0.66 0.66 0.65 0.62 0.64 0.62 0.60 0.61 0.58 0.63 0.62 0.57 0.56 0.54 0.55 0.54 0.50 0.50
0.90 0.89 0.91 0.88 0.86 0.82 0.82 0.88 0.91 0.90 0.86 0.84 0.84 0.82 0.85 0.85 0.82 0.80 0.78 0.75 0.75 0.74 0.71 0.68 0.66 0.67 0.67 0.68 0.67 0.64 0.60 0.63 0.60 0.62 0.62 0.61 0.61 0.56 0.58 0.57 0.58 0.59
0.90 0.93 0.97 0.91 0.85 0.83 0.83 0.89 0.91 0.91 0.92 0.88 0.85 0.86 0.87 0.88 0.87 0.86 0.87 0.86 0.82 0.80 0.77 0.74 0.69 0.67 0.66 0.69 0.67 0.68 0.63 0.66 0.62 0.59 0.61 0.63 0.63 0.59 0.58 0.56 0.59 0.55
0.93 0.93 0.95 0.94 0.91 0.91 0.90 0.90 0.92 0.92 0.94 0.89 0.89 0.89 0.89 0.91 0.91 0.91 0.90 0.90 0.89 0.87 0.85 0.81 0.77 0.73 0.71 0.70 0.67 0.67 0.65 0.65 0.63 0.60 0.59 0.61 0.61 0.59 0.61 0.62 0.59 0.57
1.03 1.01 0.98 0.99 0.96 0.98 0.97 0.96 0.98 0.99 0.99 0.93 0.90 0.89 0.90 0.94 0.94 0.90 0.89 0.90 0.90 0.91 0.91 0.90 0.87 0.85 0.80 0.76 0.71 0.69 0.67 0.66 0.63 0.61 0.60 0.60 0.59 0.58 0.59 0.61 0.60 0.60
1.05 1.06 1.05 1.01 0.98 0.96 0.97 1.03 1.07 1.11 1.08 1.02 1.00 0.92 0.92 0.93 0.93 0.93 0.90 0.88 0.89 0.90 0.91 0.92 0.92 0.90 0.86 0.85 0.83 0.80 0.76 0.71 0.66 0.63 0.61 0.61 0.60 0.59 0.58 0.57 0.57 0.57
1.08 1.06 1.09 1.09 1.09 1.07 1.04 1.05 1.03 1.07 1.10 1.12 1.08 1.05 1.05 1.03 1.00 0.96 0.92 0.91 0.91 0.92 0.95 0.96 0.96 0.94 0.90 0.87 0.86 0.84 0.83 0.80 0.76 0.71 0.68 0.67 0.66 0.64 0.61 0.59 0.56 0.54
0.95 1.00 1.04 1.03 1.02 1.04 1.08 1.09 1.10 1.09 1.05 1.04 1.08 1.06 1.05 1.03 1.02 0.98 0.99 0.98 0.96 0.96 0.94 0.95 0.97 0.98 0.95 0.91 0.86 0.83 0.82 0.81 0.80 0.79 0.76 0.73 0.71 0.68 0.66 0.63 0.60 0.58
0.84 0.91 0.92 0.93 0.93 0.91 0.92 0.96 0.98 1.01 0.98 1.00 1.05 1.06 1.10 1.12 1.07 1.06 1.06 1.02 0.99 0.95 0.97 0.97 0.96 0.96 0.97 0.96 0.91 0.85 0.84 0.81 0.79 0.77 0.80 0.80 0.76 0.72 0.68 0.65 0.63 0.62
0.73 0.71 0.74 0.76 0.85 0.86 0.86 0.86 0.88 0.86 0.91 0.97 0.99 0.97 0.97 1.00 1.01 1.02 1.00 0.98 1.01 0.99 0.95 0.93 0.92 0.93 0.92 0.88 0.89 0.90 0.89 0.84 0.80 0.77 0.77 0.79 0.79 0.76 0.70 0.65 0.63 0.61
0.66 0.70 0.78 0.80 0.82 0.84 0.80 0.78 0.83 0.83 0.82 0.85 0.91 0.96 1.01 1.02 1.03 1.03 1.02 0.96 0.94 0.96 0.95 0.94 0.92 0.88 0.87 0.89 0.88 0.88 0.87 0.85 0.82 0.80 0.78 0.78 0.78 0.75 0.72 0.69 0.64 0.60
0.57 0.57 0.56 0.61 0.66 0.72 0.78 0.82 0.81 0.83 0.86 0.87 0.89 0.91 0.92 0.94 0.94 0.92 0.91 0.91 0.91 0.90 0.90 0.90 0.90 0.89 0.89 0.90 0.89 0.88 0.86 0.83 0.82 0.80 0.80 0.79 0.77 0.73 0.68 0.66 0.63 0.61
0.52 0.53 0.55 0.55 0.55 0.57 0.60 0.63 0.64 0.63 0.66 0.70 0.73 0.74 0.74 0.74 0.77 0.78 0.82 0.86 0.86 0.85 0.86 0.89 0.88 0.88 0.89 0.89 0.89 0.87 0.86 0.85 0.83 0.79 0.78 0.75 0.73 0.70 0.68 0.67 0.64 0.62
0.53 0.54 0.53 0.53 0.53 0.54 0.53 0.53 0.56 0.61 0.64 0.62 0.64 0.69 0.69 0.66 0.65 0.64 0.63 0.65 0.70 0.75 0.79 0.81 0.82 0.82 0.83 0.83 0.83 0.84 0.85 0.83 0.80 0.78 0.75 0.71 0.68 0.66 0.65 0.66 0.64 0.61
0.49 0.51 0.53 0.55 0.57 0.56 0.56 0.54 0.51 0.53 0.60 0.66 0.65 0.64 0.64 0.64 0.63 0.59 0.55 0.54 0.60 0.63 0.62 0.67 0.72 0.75 0.79 0.81 0.81 0.80 0.79 0.77 0.76 0.76 0.73 0.69 0.68 0.66 0.66 0.66 0.63 0.60
0.48 0.47 0.46 0.47 0.47 0.48 0.49 0.51 0.54 0.57 0.57 0.62 0.66 0.65 0.63 0.64 0.63 0.60 0.59 0.55 0.60 0.67 0.63 0.62 0.65 0.68 0.70 0.72 0.73 0.74 0.74 0.75 0.77 0.75 0.70 0.68 0.67 0.64 0.61 0.60 0.59 0.57
0.47 0.45 0.44 0.44 0.43 0.43 0.42 0.42 0.43 0.43 0.46 0.54 0.58 0.59 0.59 0.61 0.64 0.61 0.59 0.59 0.65 0.63 0.62 0.60 0.62 0.65 0.67 0.69 0.69 0.71 0.73 0.74 0.72 0.69 0.64 0.62 0.60 0.60 0.60 0.62 0.63 0.64
0.46 0.45 0.43 0.41 0.41 0.39 0.39 0.41 0.42 0.44 0.45 0.51 0.53 0.56 0.57 0.56 0.55 0.57 0.60 0.62 0.60 0.60 0.59 0.59 0.61 0.63 0.64 0.65 0.66 0.67 0.67 0.66 0.65 0.62 0.60 0.59 0.58 0.59 0.60 0.61 0.63 0.63
0.46 0.45 0.43 0.43 0.41 0.39 0.39 0.39 0.39 0.40 0.42 0.47 0.49 0.50 0.50 0.54 0.57 0.57 0.59 0.62 0.59 0.57 0.57 0.57 0.58 0.59 0.59 0.59 0.58 0.58 0.59 0.60 0.61 0.62 0.60 0.59 0.58 0.58 0.58 0.58 0.58 0.59
0.43 0.44 0.44 0.42 0.41 0.42 0.43 0.41 0.40 0.40 0.42 0.48 0.51 0.51 0.52 0.55 0.57 0.57 0.62 0.62 0.60 0.59 0.60 0.61 0.60 0.59 0.59 0.58 0.56 0.56 0.58 0.60 0.61 0.60 0.57 0.56 0.56 0.57 0.59 0.59 0.60 0.60
0.43 0.44 0.43 0.43 0.44 0.46 0.45 0.44 0.44 0.42 0.38 0.42 0.50 0.54 0.53 0.53 0.57 0.60 0.63 0.60 0.59 0.60 0.60 0.60 0.60 0.60 0.59 0.55 0.53 0.53 0.55 0.59 0.59 0.57 0.55 0.54 0.52 0.51 0.51 0.52 0.52 0.54

ECMWFNIL_prec_pwat_009.txt.gz
Precipitable_Water
0.77 0.68 0.61 0.57 0.54 0.53 0.53 0.53 0.53 0.52 0.52 0.53 0.48 0.46 0.46 0.46 0.47 0.46 0.44 0.42 0.41 0.40 0.41 0.43 0.45 0.46 0.46 0.46 0.44 0.43 0.42 0.41 0.38 0.37 0.36 0.35 0.33 0.31 0.30 0.32 0.33 0.31
0.79 0.71 0.67 0.62 0.57 0.58 0.59 0.59 0.56 0.55 0.55 0.57 0.59 0.59 0.55 0.52 0.53 0.52 0.47 0.43 0.41 0.40 0.41 0.42 0.45 0.46 0.47 0.47 0.45 0.42 0.41 0.40 0.38 0.41 0.37 0.33 0.33 0.31 0.31 0.33 0.34 0.35
0.84 0.75 0.70 0.65 0.60 0.62 0.65 0.67 0.62 0.60 0.60 0.62 0.64 0.65 0.63 0.61 0.56 0.57 0.54 0.51 0.48 0.46 0.44 0.43 0.44 0.47 0.47 0.48 0.46 0.44 0.44 0.44 0.47 0.51 0.48 0.43 0.41 0.40 0.38 0.36 0.36 0.36
0.86 0.80 0.75 0.71 0.69 0.69 0.71 0.71 0.69 0.67 0.68 0.68 0.66 0.67 0.67 0.66 0.64 0.59 0.58 0.56 0.54 0.54 0.53 0.52 0.51 0.52 0.50 0.51 0.51 0.50 0.51 0.53 0.54 0.54 0.53 0.52 0.52 0.50 0.47 0.47 0.46 0.45
0.86 0.83 0.80 0.78 0.78 0.76 0.77 0.75 0.72 0.73 0.72 0.72 0.74 0.75 0.73 0.72 0.70 0.69 0.65 0.62 0.60 0.58 0.58 0.58 0.60 0.60 0.57 0.56 0.58 0.55 0.55 0.55 0.55 0.55 0.53 0.53 0.54 0.54 0.53 0.51 0.51 0.51
0.88 0.86 0.83 0.81 0.84 0.80 0.78 0.77 0.75 0.75 0.79 0.78 0.78 0.81 0.79 0.79 0.77 0.74 0.71 0.67 0.65 0.64 0.62 0.62 0.62 0.63 0.61 0.59 0.62 0.59 0.57 0.57 0.56 0.56 0.56 0.55 0.54 0.56 0.55 0.55 0.54 0.54
0.91 0.89 0.87 0.86 0.87 0.85 0.82 0.80 0.80 0.79 0.80 0.87 0.88 0.87 0.87 0.85 0.84 0.83 0.80 0.77 0.72 0.70 0.68 0.66 0.64 0.64 0.65 0.61 0.64 0.61 0.59 0.59 0.58 0.59 0.59 0.58 0.57 0.53 0.57 0.56 0.57 0.58
0.94 0.95 0.94 0.93 0.90 0.89 0.87 0.87 0.87 0.86 0.86 0.89 0.91 0.91 0.90 0.89 0.90 0.90 0.89 0.87 0.84 0.82 0.79 0.76 0.72 0.69 0.67 0.65 0.64 0.63 0.60 0.61 0.59 0.58 0.61 0.60 0.59 0.55 0.57 0.57 0.56 0.56
0.96 0.95 0.97 0.96 0.92 0.92 0.90 0.92 0.92 0.90 0.88 0.85 0.86 0.90 0.93 0.92 0.91 0.92 0.92 0.92 0.91 0.90 0.89 0.87 0.86 0.82 0.78 0.73 0.69 0.69 0.65 0.65 0.64 0.61 0.60 0.59 0.59 0.58 0.58 0.57 0.55 0.53
0.98 0.98 0.98 0.99 0.98 0.97 0.93 0.94 0.95 0.94 0.95 0.90 0.88 0.93 0.96 1.01 1.01 0.97 0.94 0.93 0.93 0.93 0.92 0.91 0.91 0.90 0.88 0.87 0.82 0.79 0.75 0.71 0.72 0.69 0.64 0.62 0.61 0.60 0.60 0.58 0.56 0.55
1.03 1.04 1.02 1.02 1.01 1.01 0.97 0.96 0.96 0.97 0.96 0.93 0.91 0.91 0.95 1.01 1.05 1.04 1.01 0.99 0.96 0.95 0.93 0.92 0.92 0.92 0.91 0.90 0.90 0.89 0.87 0.84 0.82 0.79 0.75 0.71 0.70 0.68 0.66 0.64 0.64 0.62
1.02 0.99 0.99 1.01 1.01 0.99 0.97 0.98 0.99 1.00 0.99 0.99 0.96 0.92 0.93 0.97 1.00 1.00 1.00 0.99 0.99 1.00 0.99 0.96 0.96 0.95 0.94 0.93 0.92 0.91 0.88 0.86 0.85 0.82 0.80 0.76 0.74 0.73 0.72 0.72 0.71 0.69
1.04 1.05 1.05 1.06 1.05 1.02 1.02 1.00 1.01 1.04 1.04 1.02 1.01 0.97 0.94 0.94 0.97 0.99 0.98 0.95 0.95 1.01 1.02 1.02 1.01 0.99 0.96 0.95 0.93 0.92 0.90 0.86 0.83 0.80 0.79 0.77 0.74 0.71 0.70 0.72 0.74 0.74
1.00 1.01 1.05 1.07 1.04 1.06 1.05 1.04 1.01 0.97 0.97 1.03 1.05 1.00 0.98 0.96 0.94 0.91 0.91 0.91 0.89 0.90 0.97 1.02 1.02 1.00 0.97 0.95 0.94 0.91 0.89 0.87 0.84 0.82 0.81 0.80 0.78 0.75 0.72 0.71 0.71 0.72
0.94 0.94 0.94 0.94 0.93 0.95 0.95 0.96 0.96 0.99 1.00 0.99 0.98 0.98 0.97 0.96 0.94 0.92 0.89 0.88 0.91 0.92 0.93 0.95 0.98 0.99 0.99 0.96 0.94 0.93 0.91 0.89 0.87 0.84 0.81 0.79 0.78 0.76 0.75 0.73 0.72 0.73
0.69 0.72 0.73 0.77 0.77 0.77 0.80 0.83 0.84 0.83 0.84 0.86 0.88 0.87 0.87 0.89 0.90 0.91 0.87 0.85 0.85 0.86 0.89 0.92 0.93 0.94 0.95 0.95 0.95 0.93 0.91 0.90 0.89 0.86 0.83 0.80 0.78 0.76 0.75 0.74 0.74 0.74
0.61 0.62 0.64 0.66 0.69 0.71 0.71 0.72 0.72 0.76 0.78 0.78 0.81 0.83 0.84 0.87 0.87 0.83 0.83 0.86 0.84 0.83 0.83 0.87 0.93 0.95 0.95 0.94 0.95 0.95 0.94 0.91 0.88 0.86 0.85 0.82 0.78 0.75 0.73 0.74 0.73 0.73
0.57 0.57 0.58 0.62 0.64 0.65 0.67 0.69 0.70 0.69 0.71 0.72 0.73 0.75 0.80 0.82 0.82 0.81 0.80 0.82 0.85 0.86 0.86 0.87 0.87 0.89 0.90 0.90 0.91 0.91 0.91 0.90 0.87 0.85 0.83 0.80 0.78 0.77 0.76 0.74 0.72 0.71
0.48 0.48 0.49 0.49 0.54 0.57 0.60 0.62 0.63 0.64 0.63 0.62 0.66 0.72 0.73 0.71 0.71 0.71 0.70 0.69 0.69 0.70 0.70 0.72 0.74 0.79 0.83 0.84 0.84 0.84 0.86 0.86 0.83 0.81 0.78 0.76 0.76 0.74 0.73 0.71 0.72 0.73
0.46 0.47 0.46 0.47 0.48 0.47 0.46 0.47 0.49 0.53 0.59 0.67 0.67 0.71 0.71 0.73 0.74 0.72 0.70 0.70 0.69 0.66 0.63 0.63 0.63 0.65 0.66 0.69 0.74 0.78 0.80 0.79 0.77 0.77 0.79 0.78 0.76 0.77 0.76 0.73 0.73 0.71
0.44 0.44 0.44 0.44 0.43 0.44 0.44 0.44 0.45 0.47 0.52 0.57 0.63 0.66 0.66 0.68 0.73 0.72 0.71 0.69 0.65 0.60 0.55 0.53 0.55 0.58 0.61 0.64 0.67 0.70 0.73 0.77 0.80 0.81 0.79 0.77 0.74 0.72 0.68 0.70 0.72 0.71
0.48 0.46 0.45 0.42 0.40 0.40 0.40 0.39 0.40 0.40 0.40 0.45 0.47 0.51 0.54 0.56 0.60 0.62 0.62 0.64 0.65 0.63 0.57 0.53 0.53 0.56 0.58 0.60 0.62 0.66 0.68 0.69 0.67 0.67 0.66 0.66 0.69 0.76 0.76 0.75 0.73 0.67
0.51 0.49 0.47 0.45 0.42 0.39 0.38 0.38 0.38 0.38 0.37 0.41 0.42 0.47 0.50 0.50 0.47 0.53 0.57 0.60 0.61 0.61 0.57 0.54 0.54 0.55 0.56 0.57 0.59 0.60 0.62 0.62 0.62 0.64 0.65 0.67 0.68 0.66 0.63 0.63 0.62 0.60
0.52 0.50 0.48 0.45 0.44 0.41 0.39 0.39 0.39 0.39 0.36 0.39 0.39 0.42 0.46 0.49 0.52 0.52 0.53 0.55 0.56 0.55 0.54 0.52 0.52 0.53 0.54 0.56 0.57 0.59 0.61 0.59 0.59 0.59 0.59 0.58 0.58 0.60 0.60 0.59 0.59 0.60
0.52 0.51 0.49 0.47 0.45 0.43 0.42 0.40 0.41 0.40 0.39 0.40 0.41 0.44 0.45 0.49 0.52 0.52 0.53 0.55 0.55 0.54 0.54 0.52 0.52 0.52 0.53 0.55 0.56 0.58 0.59 0.58 0.56 0.55 0.53 0.52 0.52 0.52 0.55 0.56 0.57 0.57
0.48 0.47 0.47 0.46 0.44 0.41 0.42 0.45 0.46 0.44 0.42 0.38 0.39 0.42 0.45 0.49 0.53 0.52 0.50 0.52 0.55 0.55 0.56 0.56 0.53 0.52 0.53 0.55 0.57 0.58 0.58 0.57 0.54 0.51 0.48 0.48 0.49 0.50 0.51 0.55 0.54 0.53

ECMWFNIL_prec_pwat_015.txt.gz
Precipitable_Water
0.83 0.77 0.78 0.73 0.66 0.63 0.60 0.54 0.51 0.46 0.42 0.39 0.37 0.38 0.41 0.43 0.44 0.41 0.39 0.40 0.41 0.41 0.40 0.39 0.39 0.38 0.37 0.36 0.35 0.35 0.37 0.39 0.40 0.38 0.36 0.36 0.36 0.36 0.36 0.35 0.35 0.34
0.79 0.76 0.77 0.75 0.74 0.71 0.63 0.57 0.53 0.49 0.45 0.43 0.42 0.41 0.42 0.43 0.42 0.40 0.38 0.39 0.41 0.40 0.40 0.38 0.36 0.35 0.35 0.34 0.33 0.31 0.31 0.30 0.30 0.33 0.32 0.32 0.33 0.33 0.31 0.30 0.29 0.31
0.80 0.79 0.79 0.80 0.81 0.73 0.62 0.59 0.57 0.53 0.50 0.49 0.48 0.47 0.45 0.46 0.41 0.41 0.40 0.40 0.39 0.40 0.40 0.40 0.38 0.37 0.36 0.35 0.34 0.33 0.31 0.31 0.30 0.33 0.33 0.33 0.35 0.34 0.35 0.37 0.37 0.39
0.81 0.82 0.82 0.83 0.87 0.79 0.67 0.60 0.58 0.56 0.55 0.53 0.52 0.51 0.50 0.50 0.48 0.45 0.43 0.42 0.41 0.41 0.42 0.43 0.43 0.43 0.41 0.39 0.39 0.39 0.40 0.40 0.41 0.42 0.41 0.43 0.43 0.43 0.44 0.45 0.45 0.45
0.89 0.87 0.89 0.83 0.89 0.84 0.74 0.63 0.59 0.57 0.55 0.55 0.57 0.55 0.53 0.54 0.52 0.50 0.49 0.48 0.47 0.46 0.47 0.48 0.49 0.49 0.50 0.48 0.47 0.48 0.50 0.49 0.50 0.49 0.47 0.47 0.49 0.50 0.51 0.51 0.49 0.48
1.02 0.93 0.88 0.85 0.86 0.85 0.78 0.67 0.62 0.60 0.58 0.57 0.58 0.59 0.58 0.59 0.57 0.55 0.54 0.53 0.54 0.53 0.53 0.54 0.54 0.55 0.56 0.54 0.53 0.53 0.54 0.55 0.56 0.55 0.52 0.51 0.52 0.55 0.55 0.55 0.54 0.52
0.99 0.91 0.88 0.83 0.84 0.82 0.84 0.76 0.69 0.66 0.65 0.64 0.63 0.62 0.61 0.61 0.60 0.59 0.59 0.57 0.58 0.59 0.58 0.58 0.58 0.58 0.59 0.58 0.57 0.56 0.56 0.56 0.56 0.55 0.54 0.53 0.53 0.54 0.55 0.54 0.54 0.53
0.96 0.92 0.86 0.80 0.78 0.80 0.85 0.82 0.77 0.72 0.73 0.77 0.74 0.71 0.67 0.62 0.61 0.61 0.62 0.60 0.58 0.58 0.60 0.61 0.61 0.60 0.61 0.60 0.59 0.59 0.58 0.58 0.56 0.55 0.54 0.54 0.55 0.54 0.54 0.55 0.55 0.54
0.93 0.91 0.88 0.83 0.82 0.82 0.85 0.85 0.82 0.78 0.78 0.78 0.79 0.80 0.80 0.77 0.74 0.71 0.68 0.65 0.60 0.58 0.59 0.60 0.61 0.61 0.62 0.61 0.60 0.59 0.59 0.59 0.59 0.57 0.55 0.54 0.55 0.55 0.55 0.56 0.55 0.55
0.88 0.90 0.90 0.88 0.87 0.87 0.89 0.92 0.93 0.91 0.93 0.91 0.91 0.90 0.86 0.87 0.89 0.87 0.84 0.81 0.77 0.71 0.68 0.67 0.68 0.68 0.68 0.69 0.68 0.67 0.67 0.67 0.67 0.65 0.63 0.61 0.60 0.61 0.62 0.63 0.62 0.61
0.87 0.87 0.88 0.91 0.91 0.92 0.91 0.94 0.98 0.98 0.98 0.98 0.97 0.96 0.97 0.97 0.99 0.99 0.96 0.93 0.90 0.87 0.84 0.82 0.82 0.83 0.82 0.82 0.82 0.82 0.82 0.82 0.82 0.81 0.80 0.78 0.75 0.74 0.73 0.72 0.71 0.69
0.89 0.87 0.85 0.87 0.91 0.94 0.96 1.01 1.03 1.03 1.03 1.03 1.02 0.98 0.97 0.98 0.99 1.04 1.07 1.04 1.01 1.00 0.94 0.93 0.91 0.88 0.88 0.88 0.88 0.88 0.87 0.87 0.87 0.87 0.87 0.86 0.85 0.85 0.83 0.82 0.80 0.78
0.87 0.85 0.86 0.85 0.89 0.95 1.01 1.04 1.04 1.05 1.07 1.08 1.07 1.05 1.01 0.98 0.99 1.00 1.04 1.03 1.00 1.00 1.02 1.01 0.98 0.95 0.93 0.91 0.91 0.92 0.92 0.91 0.90 0.91 0.91 0.91 0.91 0.90 0.88 0.86 0.84 0.82
0.92 0.93 0.91 0.93 0.95 1.00 1.04 1.04 1.01 1.03 1.04 1.07 1.10 1.08 1.06 1.03 1.01 1.00 1.01 1.03 1.03 1.01 1.07 1.08 1.03 0.99 0.97 0.96 0.96 0.94 0.93 0.91 0.90 0.90 0.92 0.92 0.94 0.94 0.91 0.88 0.86 0.84
0.90 0.93 0.96 0.96 0.96 0.97 1.01 1.04 1.06 1.06 1.06 1.06 1.07 1.08 1.06 1.04 1.04 1.03 1.01 1.00 1.00 1.00 1.02 1.05 1.05 1.00 0.99 0.98 0.97 0.96 0.95 0.93 0.93 0.91 0.90 0.90 0.89 0.91 0.89 0.88 0.85 0.83
0.89 0.90 0.91 0.92 0.93 0.92 0.95 1.01 1.04 1.05 1.06 1.05 1.05 1.04 1.02 1.00 0.98 0.99 0.99 0.96 0.96 0.99 0.98 1.00 1.02 1.02 1.01 1.01 1.00 0.97 0.96 0.96 0.94 0.92 0.91 0.89 0.88 0.88 0.89 0.88 0.85 0.84
0.92 0.91 0.93 0.91 0.91 0.92 0.91 0.90 0.93 0.94 0.92 0.94 0.95 0.95 0.95 0.97 0.98 1.00 0.99 0.97 0.98 0.96 0.93 0.94 0.97 0.99 0.97 0.95 0.94 0.94 0.93 0.91 0.89 0.90 0.93 0.93 0.92 0.91 0.90 0.91 0.92 0.90
0.86 0.85 0.84 0.85 0.87 0.87 0.86 0.87 0.87 0.86 0.86 0.86 0.88 0.90 0.96 1.01 1.00 0.98 0.99 0.96 0.93 0.92 0.93 0.94 0.96 0.96 0.93 0.92 0.92 0.93 0.93 0.91 0.89 0.87 0.87 0.86 0.86 0.87 0.87 0.87 0.88 0.88
0.78 0.78 0.79 0.81 0.83 0.85 0.85 0.85 0.85 0.85 0.85 0.84 0.82 0.86 0.93 0.90 0.91 0.91 0.90 0.89 0.85 0.84 0.87 0.90 0.91 0.92 0.91 0.90 0.89 0.90 0.91 0.90 0.88 0.86 0.83 0.82 0.80 0.78 0.77 0.77 0.77 0.77
0.72 0.75 0.78 0.80 0.83 0.82 0.81 0.78 0.77 0.77 0.80 0.83 0.85 0.87 0.87 0.87 0.86 0.84 0.83 0.83 0.84 0.84 0.84 0.84 0.81 0.78 0.76 0.74 0.73 0.72 0.72 0.72 0.73 0.77 0.79 0.78 0.77 0.76 0.76 0.75 0.75 0.73
0.59 0.62 0.66 0.69 0.70 0.70 0.69 0.68 0.67 0.69 0.70 0.73 0.74 0.75 0.75 0.75 0.77 0.77 0.79 0.79 0.79 0.78 0.75 0.72 0.70 0.69 0.68 0.67 0.66 0.65 0.64 0.64 0.63 0.61 0.60 0.60 0.62 0.66 0.69 0.70 0.70 0.69
0.56 0.55 0.58 0.59 0.60 0.60 0.60 0.58 0.57 0.56 0.56 0.60 0.63 0.66 0.68 0.69 0.68 0.67 0.66 0.66 0.68 0.66 0.64 0.62 0.62 0.62 0.62 0.60 0.59 0.56 0.55 0.53 0.53 0.54 0.54 0.56 0.58 0.60 0.61 0.62 0.63 0.63
0.54 0.53 0.53 0.53 0.54 0.53 0.52 0.51 0.49 0.49 0.51 0.53 0.52 0.54 0.55 0.57 0.58 0.59 0.60 0.58 0.57 0.57 0.56 0.56 0.56 0.57 0.57 0.57 0.56 0.55 0.52 0.50 0.50 0.51 0.52 0.51 0.51 0.52 0.54 0.55 0.56 0.56
0.57 0.56 0.54 0.53 0.53 0.51 0.47 0.46 0.46 0.47 0.48 0.51 0.49 0.49 0.50 0.52 0.54 0.54 0.55 0.55 0.54 0.54 0.54 0.52 0.53 0.54 0.55 0.56 0.55 0.54 0.51 0.49 0.49 0.48 0.48 0.48 0.48 0.49 0.50 0.51 0.52 0.53
0.59 0.58 0.58 0.56 0.52 0.47 0.44 0.41 0.40 0.42 0.44 0.45 0.44 0.44 0.45 0.48 0.50 0.50 0.52 0.54 0.56 0.55 0.55 0.53 0.52 0.54 0.55 0.56 0.56 0.55 0.54 0.53 0.52 0.50 0.47 0.47 0.47 0.47 0.48 0.49 0.50 0.52
0.61 0.60 0.60 0.58 0.57 0.56 0.55 0.51 0.49 0.45 0.42 0.42 0.41 0.40 0.41 0.44 0.46 0.47 0.47 0.49 0.52 0.53 0.53 0.53 0.52 0.54 0.55 0.56 0.55 0.55 0.55 0.54 0.54 0.51 0.48 0.48 0.48 0.48 0.47 0.48 0.49 0.49

ECMWFNIL_prec_pwat_021.txt.gz
Precipitable_Water
0.97 0.92 0.89 0.86 0.86 0.87 0.78 0.82 0.77 0.72 0.69 0.61 0.55 0.55 0.57 0.56 0.53 0.50 0.49 0.49 0.53 0.54 0.55 0.55 0.56 0.56 0.56 0.54 0.54 0.53 0.55 0.53 0.46 0.45 0.45 0.44 0.43 0.42 0.40 0.40 0.40 0.38
0.98 0.95 0.90 0.90 0.92 0.95 0.85 0.79 0.74 0.73 0.71 0.62 0.54 0.54 0.54 0.53 0.50 0.49 0.46 0.47 0.48 0.48 0.49 0.49 0.49 0.50 0.50 0.50 0.50 0.48 0.46 0.44 0.40 0.43 0.41 0.39 0.37 0.35 0.33 0.32 0.32 0.34
0.92 0.90 0.91 0.93 0.94 0.91 0.84 0.78 0.74 0.74 0.73 0.64 0.54 0.53 0.51 0.51 0.49 0.49 0.46 0.45 0.44 0.44 0.44 0.43 0.41 0.41 0.42 0.44 0.46 0.45 0.42 0.38 0.36 0.38 0.36 0.32 0.33 0.32 0.34 0.37 0.39 0.41
0.96 0.95 0.97 0.99 0.99 0.87 0.81 0.73 0.71 0.74 0.75 0.59 0.51 0.50 0.51 0.50 0.49 0.47 0.47 0.45 0.44 0.43 0.43 0.42 0.40 0.39 0.38 0.40 0.42 0.41 0.40 0.40 0.40 0.41 0.38 0.39 0.40 0.41 0.43 0.46 0.47 0.48
0.93 0.93 0.96 0.99 0.99 0.89 0.81 0.72 0.70 0.75 0.70 0.63 0.55 0.51 0.49 0.49 0.47 0.46 0.46 0.46 0.47 0.46 0.47 0.46 0.45 0.43 0.43 0.43 0.44 0.43 0.45 0.46 0.48 0.49 0.48 0.49 0.52 0.53 0.55 0.55 0.54 0.53
0.91 0.91 0.95 0.99 0.95 0.89 0.83 0.75 0.73 0.76 0.69 0.63 0.59 0.56 0.53 0.50 0.48 0.47 0.47 0.47 0.49 0.50 0.52 0.54 0.55 0.54 0.52 0.51 0.51 0.50 0.50 0.51 0.53 0.54 0.53 0.53 0.55 0.57 0.57 0.58 0.57 0.56
0.90 0.92 0.95 1.02 0.97 0.90 0.88 0.81 0.78 0.82 0.72 0.69 0.65 0.61 0.58 0.53 0.50 0.50 0.50 0.51 0.52 0.54 0.56 0.59 0.61 0.61 0.61 0.58 0.57 0.56 0.55 0.54 0.55 0.56 0.54 0.54 0.55 0.54 0.55 0.55 0.55 0.55
0.90 0.92 0.97 0.99 0.95 0.88 0.87 0.81 0.79 0.81 0.79 0.72 0.66 0.63 0.63 0.59 0.55 0.54 0.55 0.55 0.55 0.57 0.59 0.61 0.63 0.64 0.64 0.63 0.61 0.60 0.59 0.58 0.56 0.55 0.54 0.54 0.56 0.53 0.54 0.55 0.54 0.53
0.90 0.89 0.90 0.90 0.86 0.84 0.86 0.81 0.79 0.80 0.81 0.73 0.68 0.64 0.64 0.64 0.61 0.59 0.59 0.60 0.59 0.61 0.61 0.62 0.63 0.64 0.66 0.65 0.63 0.63 0.63 0.62 0.60 0.57 0.56 0.54 0.54 0.55 0.55 0.56 0.57 0.57
0.90 0.90 0.87 0.87 0.80 0.81 0.84 0.82 0.81 0.79 0.79 0.76 0.71 0.69 0.65 0.66 0.67 0.65 0.63 0.63 0.63 0.63 0.64 0.64 0.64 0.65 0.65 0.66 0.65 0.65 0.65 0.66 0.67 0.67 0.65 0.62 0.60 0.59 0.59 0.59 0.61 0.62
0.91 0.91 0.88 0.87 0.83 0.85 0.87 0.83 0.81 0.77 0.77 0.78 0.76 0.72 0.70 0.70 0.71 0.70 0.68 0.67 0.65 0.65 0.67 0.68 0.69 0.70 0.68 0.68 0.68 0.69 0.68 0.69 0.70 0.71 0.72 0.73 0.73 0.72 0.70 0.70 0.70 0.72
0.91 0.91 0.89 0.87 0.85 0.87 0.92 0.90 0.85 0.79 0.77 0.81 0.79 0.74 0.73 0.74 0.75 0.76 0.76 0.76 0.77 0.77 0.77 0.76 0.77 0.76 0.74 0.73 0.72 0.73 0.74 0.76 0.78 0.80 0.81 0.82 0.84 0.85 0.85 0.84 0.82 0.81
0.91 0.91 0.91 0.88 0.86 0.86 0.90 0.91 0.88 0.86 0.82 0.82 0.85 0.83 0.79 0.79 0.79 0.81 0.85 0.85 0.86 0.86 0.84 0.84 0.84 0.84 0.84 0.84 0.84 0.85 0.87 0.88 0.89 0.89 0.89 0.91 0.93 0.93 0.94 0.94 0.92 0.91
0.94 0.95 0.94 0.92 0.89 0.89 0.90 0.90 0.88 0.88 0.88 0.89 0.89 0.87 0.85 0.84 0.85 0.87 0.90 0.92 0.94 0.94 0.94 0.93 0.92 0.91 0.91 0.94 0.97 0.99 0.99 0.97 0.97 0.95 0.95 0.96 0.97 0.97 0.98 0.97 0.96 0.95
0.95 0.97 0.97 0.95 0.92 0.88 0.87 0.88 0.88 0.88 0.90 0.90 0.89 0.89 0.89 0.92 0.95 0.94 0.91 0.90 0.94 0.96 0.97 1.00 0.99 0.99 1.00 1.00 1.00 1.02 1.02 1.00 1.00 0.99 0.98 0.97 0.97 0.99 1.01 0.99 0.95 0.94
0.91 0.93 0.94 0.96 0.95 0.92 0.89 0.88 0.87 0.88 0.89 0.89 0.90 0.91 0.91 0.91 0.92 0.95 0.95 0.92 0.91 0.94 0.97 1.00 1.01 1.02 1.03 1.03 1.03 1.03 1.02 1.02 1.02 1.01 1.00 0.99 0.99 0.99 0.99 0.97 0.95 0.94
0.89 0.91 0.94 0.93 0.95 0.94 0.93 0.91 0.89 0.89 0.89 0.91 0.92 0.94 0.94 0.93 0.92 0.91 0.92 0.95 0.93 0.91 0.92 0.95 0.98 1.00 1.01 1.02 1.02 1.02 1.01 1.02 1.02 1.00 1.01 0.99 0.97 0.94 0.92 0.92 0.93 0.94
0.85 0.88 0.90 0.93 0.93 0.93 0.93 0.94 0.95 0.96 0.96 0.96 0.96 0.95 0.97 0.98 0.95 0.93 0.93 0.94 0.96 0.94 0.90 0.92 0.95 0.98 0.99 1.01 1.02 1.03 1.04 1.05 1.06 1.01 0.98 0.97 0.96 0.94 0.93 0.92 0.91 0.91
0.82 0.83 0.86 0.90 0.92 0.93 0.94 0.94 0.93 0.93 0.95 0.95 0.95 0.97 0.97 0.95 0.94 0.94 0.94 0.95 0.94 0.90 0.86 0.87 0.92 0.95 0.94 0.95 1.00 1.05 1.06 1.06 1.05 1.03 0.99 0.96 0.94 0.92 0.90 0.88 0.86 0.84
0.76 0.78 0.79 0.84 0.88 0.90 0.91 0.91 0.90 0.90 0.92 0.94 0.94 0.93 0.91 0.91 0.93 0.93 0.93 0.92 0.91 0.89 0.87 0.88 0.88 0.92 0.93 0.96 1.02 1.05 1.06 1.02 0.97 0.94 0.90 0.85 0.80 0.76 0.73 0.71 0.71 0.69
0.69 0.71 0.72 0.76 0.80 0.83 0.85 0.86 0.87 0.89 0.90 0.92 0.92 0.92 0.92 0.92 0.91 0.89 0.90 0.91 0.92 0.91 0.89 0.89 0.93 0.96 0.99 1.02 1.05 1.01 0.94 0.89 0.86 0.81 0.75 0.69 0.65 0.65 0.67 0.68 0.69 0.69
0.58 0.62 0.68 0.72 0.75 0.81 0.84 0.84 0.85 0.87 0.88 0.91 0.91 0.92 0.94 0.95 0.95 0.93 0.90 0.90 0.91 0.90 0.90 0.91 0.92 0.94 0.99 1.03 0.96 0.91 0.86 0.80 0.73 0.65 0.60 0.59 0.60 0.62 0.63 0.62 0.62 0.61
0.58 0.57 0.60 0.65 0.72 0.75 0.77 0.81 0.83 0.84 0.86 0.88 0.86 0.88 0.89 0.90 0.90 0.90 0.91 0.90 0.90 0.90 0.89 0.91 0.87 0.94 0.92 0.90 0.88 0.84 0.76 0.67 0.61 0.57 0.56 0.56 0.56 0.57 0.57 0.57 0.56 0.55
0.58 0.58 0.58 0.60 0.64 0.68 0.73 0.76 0.77 0.78 0.78 0.82 0.82 0.82 0.81 0.84 0.86 0.86 0.88 0.88 0.86 0.87 0.90 0.89 0.86 0.87 0.85 0.82 0.78 0.72 0.66 0.61 0.58 0.55 0.54 0.54 0.53 0.53 0.53 0.52 0.52 0.51
0.56 0.57 0.58 0.60 0.61 0.65 0.70 0.72 0.70 0.70 0.72 0.74 0.75 0.76 0.76 0.77 0.78 0.78 0.79 0.81 0.82 0.83 0.84 0.81 0.80 0.78 0.76 0.72 0.67 0.65 0.62 0.61 0.58 0.54 0.51 0.51 0.50 0.50 0.51 0.50 0.50 0.49
0.55 0.55 0.56 0.58 0.60 0.63 0.66 0.67 0.66 0.65 0.64 0.66 0.69 0.71 0.71 0.73 0.73 0.73 0.71 0.71 0.74 0.74 0.74 0.73 0.70 0.68 0.66 0.65 0.65 0.64 0.64 0.62 0.60 0.55 0.52 0.51 0.51 0.49 0.48 0.49 0.49 0.49

ECMWFNIL_prec_pwat_024.txt.gz
Precipitable_Water
0.91 0.95 0.91 0.88 0.86 0.83 0.83 0.84 0.84 0.86 0.85 0.80 0.78 0.73 0.71 0.63 0.63 0.60 0.60 0.64 0.64 0.62 0.60 0.59 0.60 0.60 0.59 0.59 0.65 0.75 0.77 0.71 0.73 0.73 0.72 0.75 0.76 0.73 0.67 0.65 0.62 0.57
0.99 1.00 0.94 0.91 0.90 0.87 0.86 0.84 0.84 0.84 0.75 0.72 0.74 0.73 0.67 0.62 0.61 0.61 0.58 0.57 0.56 0.54 0.53 0.53 0.55 0.56 0.57 0.59 0.62 0.65 0.60 0.55 0.53 0.54 0.50 0.49 0.49 0.49 0.48 0.46 0.42 0.40
0.98 0.99 0.93 0.88 0.89 0.92 0.93 0.92 0.84 0.75 0.72 0.73 0.74 0.70 0.64 0.62 0.59 0.59 0.57 0.54 0.51 0.48 0.45 0.44 0.45 0.48 0.50 0.53 0.56 0.54 0.49 0.45 0.46 0.48 0.47 0.45 0.44 0.41 0.39 0.39 0.39 0.40
0.96 0.98 0.97 0.95 0.97 0.98 0.98 0.91 0.79 0.72 0.71 0.67 0.69 0.65 0.61 0.59 0.58 0.54 0.52 0.51 0.49 0.47 0.45 0.42 0.41 0.42 0.44 0.45 0.47 0.45 0.44 0.45 0.44 0.42 0.39 0.39 0.39 0.41 0.44 0.47 0.47 0.49
0.94 0.94 0.95 0.94 0.95 0.98 0.96 0.88 0.70 0.69 0.68 0.69 0.71 0.64 0.59 0.57 0.56 0.53 0.52 0.51 0.50 0.47 0.45 0.43 0.41 0.40 0.42 0.44 0.44 0.41 0.41 0.40 0.42 0.43 0.43 0.46 0.51 0.54 0.55 0.57 0.59 0.58
0.97 0.95 0.94 0.93 0.94 0.96 0.96 0.85 0.69 0.70 0.68 0.70 0.67 0.61 0.57 0.57 0.56 0.53 0.51 0.51 0.52 0.50 0.48 0.46 0.44 0.45 0.45 0.47 0.48 0.48 0.48 0.46 0.48 0.49 0.49 0.52 0.54 0.59 0.61 0.62 0.62 0.61
0.98 0.98 0.95 0.95 0.95 1.00 0.96 0.86 0.72 0.75 0.71 0.73 0.68 0.64 0.57 0.55 0.55 0.54 0.53 0.53 0.53 0.53 0.53 0.52 0.51 0.51 0.53 0.53 0.53 0.55 0.56 0.54 0.56 0.57 0.56 0.57 0.59 0.60 0.62 0.62 0.61 0.60
1.01 0.98 0.95 0.95 0.95 0.98 0.99 0.89 0.74 0.78 0.74 0.72 0.68 0.67 0.61 0.56 0.53 0.55 0.55 0.56 0.57 0.57 0.59 0.59 0.59 0.58 0.60 0.61 0.58 0.57 0.57 0.60 0.61 0.60 0.59 0.57 0.58 0.57 0.60 0.62 0.61 0.58
1.01 0.98 0.97 0.94 0.92 0.93 0.96 0.92 0.81 0.75 0.80 0.71 0.70 0.69 0.68 0.62 0.58 0.54 0.55 0.56 0.58 0.60 0.62 0.63 0.64 0.63 0.65 0.65 0.64 0.63 0.60 0.60 0.63 0.62 0.60 0.60 0.60 0.58 0.58 0.60 0.60 0.59
1.00 0.98 0.96 0.94 0.90 0.92 0.95 0.95 0.88 0.78 0.79 0.80 0.75 0.68 0.65 0.67 0.63 0.58 0.56 0.56 0.56 0.59 0.62 0.65 0.67 0.68 0.68 0.68 0.67 0.67 0.67 0.65 0.64 0.65 0.65 0.64 0.63 0.61 0.61 0.60 0.63 0.63
0.98 0.99 0.94 0.92 0.90 0.91 0.96 0.95 0.90 0.82 0.77 0.81 0.82 0.72 0.67 0.66 0.66 0.65 0.61 0.59 0.59 0.60 0.62 0.65 0.67 0.68 0.68 0.69 0.69 0.70 0.70 0.69 0.68 0.68 0.68 0.68 0.69 0.69 0.67 0.67 0.68 0.69
0.99 0.98 0.96 0.95 0.95 0.96 0.97 0.92 0.90 0.87 0.81 0.81 0.83 0.79 0.73 0.69 0.66 0.67 0.65 0.63 0.61 0.63 0.64 0.66 0.68 0.70 0.70 0.70 0.70 0.70 0.71 0.72 0.73 0.72 0.73 0.73 0.73 0.73 0.73 0.74 0.76 0.78
1.00 1.02 1.01 0.99 0.99 0.99 0.97 0.92 0.89 0.88 0.85 0.81 0.81 0.82 0.78 0.73 0.72 0.71 0.70 0.70 0.69 0.69 0.69 0.70 0.72 0.74 0.75 0.75 0.75 0.76 0.76 0.77 0.77 0.78 0.79 0.80 0.82 0.84 0.86 0.87 0.88 0.89
0.98 1.01 1.03 1.02 1.01 1.01 0.98 0.95 0.94 0.93 0.90 0.87 0.83 0.82 0.82 0.78 0.75 0.74 0.75 0.76 0.76 0.75 0.76 0.78 0.81 0.82 0.83 0.85 0.87 0.89 0.89 0.88 0.88 0.88 0.88 0.92 0.94 0.95 0.96 0.97 0.98 0.98
0.94 0.97 1.00 1.02 1.02 1.00 0.98 0.96 0.96 0.96 0.97 0.96 0.91 0.86 0.87 0.87 0.85 0.81 0.79 0.80 0.81 0.82 0.83 0.85 0.85 0.85 0.86 0.86 0.89 0.92 0.95 0.94 0.94 0.95 0.97 0.98 1.01 1.02 1.03 1.02 1.02 1.01
0.88 0.91 0.95 0.98 1.00 0.99 0.97 0.95 0.95 0.98 1.00 1.00 0.96 0.93 0.94 0.93 0.93 0.92 0.89 0.85 0.83 0.84 0.87 0.90 0.91 0.92 0.90 0.90 0.91 0.92 0.94 0.96 0.98 0.99 1.01 1.02 1.02 1.02 1.03 1.04 1.04 1.05
0.85 0.86 0.88 0.91 0.97 0.99 0.99 0.97 0.96 0.97 0.99 0.99 0.97 0.95 0.95 0.96 0.95 0.95 0.95 0.93 0.90 0.90 0.88 0.90 0.91 0.92 0.89 0.91 0.93 0.93 0.93 0.96 0.98 1.02 1.05 1.05 1.03 1.02 1.01 1.01 1.05 1.05
0.83 0.86 0.86 0.87 0.90 0.93 0.96 0.98 0.98 0.98 0.97 0.97 0.95 0.94 0.96 0.98 0.94 0.93 0.94 0.95 0.95 0.95 0.93 0.92 0.93 0.96 0.94 0.93 0.95 0.96 0.96 0.95 0.99 1.01 1.03 1.04 1.05 1.04 1.02 1.01 1.04 1.05
0.77 0.81 0.84 0.86 0.89 0.90 0.91 0.92 0.93 0.94 0.95 0.94 0.94 0.96 0.98 0.96 0.96 0.96 0.96 0.98 0.98 0.96 0.97 0.99 0.97 0.94 0.92 0.94 0.94 0.92 0.92 0.94 0.96 0.99 0.99 1.01 1.03 1.04 1.01 1.03 1.03 1.04
0.69 0.73 0.74 0.78 0.84 0.88 0.90 0.90 0.90 0.90 0.92 0.94 0.94 0.95 0.95 0.95 0.97 0.97 0.98 0.99 1.00 0.99 0.98 0.98 0.97 0.98 0.96 0.95 0.94 0.92 0.90 0.92 0.97 0.98 0.98 1.02 1.07 1.06 1.00 1.01 0.99 0.95
0.58 0.59 0.65 0.68 0.72 0.76 0.80 0.85 0.87 0.90 0.90 0.92 0.92 0.93 0.93 0.93 0.95 0.95 0.97 0.98 0.98 0.98 0.97 0.96 0.97 0.97 0.95 0.95 0.94 0.93 0.92 0.93 0.99 0.98 0.97 1.00 1.03 1.00 0.91 0.83 0.81 0.78
0.57 0.57 0.58 0.61 0.65 0.68 0.71 0.75 0.80 0.82 0.84 0.89 0.90 0.91 0.91 0.91 0.91 0.92 0.92 0.93 0.96 0.96 0.94 0.93 0.97 0.95 0.91 0.90 0.90 0.90 0.92 0.96 0.95 0.92 0.92 0.98 0.96 0.88 0.81 0.76 0.74 0.73
0.58 0.57 0.56 0.57 0.60 0.62 0.65 0.68 0.73 0.78 0.83 0.87 0.86 0.87 0.88 0.89 0.90 0.92 0.95 0.95 0.94 0.94 0.93 0.94 0.94 0.91 0.90 0.90 0.91 0.96 0.94 0.91 0.92 0.92 0.90 0.87 0.83 0.77 0.73 0.71 0.69 0.67
0.57 0.56 0.57 0.58 0.59 0.59 0.64 0.69 0.71 0.72 0.74 0.79 0.78 0.80 0.83 0.87 0.90 0.93 0.96 0.97 0.95 0.94 0.95 0.94 0.91 0.90 0.91 0.91 0.95 0.95 0.93 0.93 0.90 0.87 0.82 0.74 0.70 0.67 0.64 0.62 0.61 0.61
0.55 0.55 0.55 0.54 0.55 0.58 0.63 0.67 0.72 0.73 0.75 0.76 0.74 0.77 0.83 0.87 0.88 0.90 0.93 0.95 0.96 0.96 0.96 0.92 0.91 0.88 0.88 0.93 0.93 0.92 0.92 0.91 0.84 0.74 0.64 0.61 0.60 0.60 0.59 0.58 0.57 0.56
0.54 0.53 0.53 0.54 0.55 0.56 0.57 0.61 0.67 0.69 0.68 0.68 0.67 0.69 0.74 0.82 0.85 0.86 0.86 0.88 0.92 0.94 0.93 0.94 0.88 0.87 0.89 0.88 0.88 0.87 0.85 0.80 0.70 0.62 0.58 0.57 0.57 0.55 0.53 0.53 0.53 0.52

ECMWFNIL_prec_pwat_027.txt.gz
Precipitable_Water
1.00 0.97 0.93 0.92 0.86 0.84 0.86 0.85 0.86 0.88 0.89 0.88 0.88 0.87 0.86 0.79 0.73 0.73 0.72 0.78 0.81 0.79 0.77 0.73 0.68 0.61 0.57 0.64 0.70 0.74 0.77 0.78 0.80 0.82 0.86 0.86 0.87 0.86 0.81 0.84 0.87 0.86
1.00 1.04 1.00 0.94 0.88 0.84 0.89 0.90 0.87 0.89 0.87 0.87 0.86 0.85 0.78 0.71 0.69 0.72 0.71 0.71 0.70 0.66 0.62 0.61 0.57 0.58 0.57 0.61 0.67 0.66 0.66 0.68 0.67 0.71 0.72 0.77 0.79 0.82 0.77 0.71 0.65 0.61
1.11 1.08 0.99 0.93 0.87 0.87 0.85 0.85 0.87 0.87 0.86 0.82 0.82 0.79 0.72 0.71 0.67 0.66 0.64 0.60 0.56 0.54 0.54 0.56 0.59 0.61 0.63 0.60 0.63 0.64 0.63 0.61 0.62 0.62 0.63 0.62 0.60 0.56 0.52 0.51 0.47 0.46
1.19 1.15 1.02 0.98 0.95 0.90 0.89 0.88 0.89 0.87 0.81 0.73 0.74 0.74 0.70 0.66 0.66 0.62 0.59 0.56 0.52 0.49 0.48 0.49 0.51 0.54 0.57 0.56 0.56 0.55 0.54 0.52 0.49 0.47 0.44 0.44 0.45 0.46 0.44 0.43 0.47 0.49
1.14 1.13 1.03 1.00 0.98 0.94 0.91 0.86 0.83 0.79 0.69 0.70 0.73 0.70 0.68 0.61 0.57 0.55 0.56 0.55 0.52 0.48 0.46 0.44 0.45 0.46 0.48 0.49 0.48 0.44 0.42 0.40 0.41 0.42 0.42 0.41 0.43 0.44 0.46 0.49 0.49 0.50
1.18 1.15 1.07 1.01 0.97 0.91 0.90 0.86 0.84 0.75 0.69 0.71 0.68 0.67 0.63 0.58 0.54 0.54 0.54 0.51 0.52 0.49 0.45 0.44 0.43 0.44 0.45 0.43 0.42 0.40 0.40 0.40 0.39 0.39 0.39 0.40 0.42 0.50 0.56 0.58 0.57 0.56
1.09 1.13 1.08 1.01 0.96 0.96 0.93 0.90 0.85 0.74 0.69 0.73 0.71 0.68 0.63 0.56 0.54 0.53 0.53 0.53 0.51 0.49 0.47 0.46 0.45 0.44 0.45 0.45 0.44 0.44 0.43 0.42 0.43 0.45 0.46 0.52 0.56 0.58 0.60 0.62 0.62 0.61
1.14 1.10 1.07 1.02 0.96 0.97 0.95 0.90 0.82 0.72 0.70 0.73 0.73 0.70 0.62 0.58 0.55 0.53 0.55 0.54 0.53 0.54 0.52 0.49 0.50 0.50 0.51 0.52 0.53 0.52 0.52 0.54 0.55 0.56 0.58 0.59 0.62 0.62 0.64 0.64 0.62 0.60
1.11 1.06 1.06 1.04 1.00 0.99 0.96 0.90 0.80 0.72 0.71 0.71 0.74 0.72 0.67 0.60 0.55 0.53 0.52 0.55 0.56 0.57 0.57 0.55 0.56 0.57 0.59 0.58 0.57 0.58 0.59 0.62 0.64 0.63 0.61 0.61 0.62 0.61 0.62 0.64 0.63 0.62
1.09 1.09 1.06 1.04 1.04 1.02 1.01 0.94 0.86 0.81 0.72 0.72 0.74 0.75 0.71 0.67 0.60 0.54 0.52 0.53 0.55 0.58 0.60 0.60 0.61 0.63 0.64 0.62 0.59 0.61 0.62 0.64 0.67 0.67 0.66 0.65 0.62 0.61 0.62 0.62 0.63 0.62
1.07 1.08 1.07 1.05 1.06 1.05 1.05 1.01 0.94 0.90 0.81 0.71 0.74 0.72 0.77 0.73 0.66 0.61 0.55 0.54 0.53 0.55 0.59 0.62 0.63 0.63 0.65 0.66 0.70 0.69 0.66 0.66 0.66 0.67 0.68 0.68 0.67 0.66 0.64 0.65 0.66 0.67
1.06 1.08 1.08 1.08 1.06 1.04 1.06 1.07 1.01 0.95 0.90 0.82 0.80 0.72 0.71 0.74 0.70 0.66 0.59 0.56 0.54 0.54 0.55 0.59 0.61 0.63 0.66 0.68 0.69 0.72 0.73 0.71 0.71 0.70 0.70 0.71 0.73 0.73 0.69 0.71 0.69 0.73
1.05 1.07 1.08 1.08 1.08 1.07 1.06 1.06 1.06 1.00 0.94 0.84 0.83 0.83 0.76 0.70 0.69 0.69 0.66 0.65 0.59 0.58 0.57 0.56 0.58 0.61 0.64 0.66 0.67 0.69 0.73 0.73 0.75 0.75 0.74 0.75 0.75 0.74 0.73 0.73 0.74 0.76
1.06 1.08 1.08 1.08 1.09 1.10 1.09 1.09 1.06 1.02 0.98 0.91 0.86 0.83 0.85 0.80 0.72 0.69 0.69 0.71 0.69 0.66 0.65 0.62 0.61 0.61 0.64 0.66 0.68 0.69 0.72 0.74 0.75 0.77 0.78 0.78 0.79 0.79 0.79 0.78 0.78 0.81
1.01 1.00 0.99 1.00 1.01 1.04 1.05 1.06 1.06 1.02 0.99 0.95 0.89 0.86 0.88 0.87 0.84 0.79 0.74 0.71 0.73 0.74 0.74 0.73 0.70 0.66 0.67 0.67 0.68 0.71 0.74 0.74 0.76 0.77 0.81 0.82 0.82 0.83 0.87 0.89 0.91 0.93
0.95 0.92 0.91 0.96 0.97 0.99 0.99 1.05 1.06 1.02 1.01 0.96 0.92 0.89 0.89 0.88 0.89 0.89 0.84 0.78 0.75 0.78 0.79 0.80 0.79 0.78 0.77 0.72 0.73 0.76 0.77 0.78 0.82 0.84 0.86 0.88 0.89 0.89 0.91 0.94 0.98 1.02
0.86 0.87 0.89 0.92 0.96 0.98 0.98 0.96 1.00 1.01 1.00 1.00 0.98 0.96 0.92 0.95 0.97 0.95 0.92 0.90 0.85 0.85 0.86 0.88 0.87 0.86 0.83 0.79 0.79 0.80 0.82 0.82 0.83 0.84 0.86 0.89 0.90 0.92 0.92 0.97 1.02 1.15
0.82 0.86 0.85 0.87 0.90 0.92 0.92 0.93 0.94 0.94 0.96 0.99 1.01 1.02 1.01 1.01 1.02 0.97 0.96 0.97 0.96 0.96 0.97 0.98 0.96 0.94 0.89 0.87 0.86 0.85 0.87 0.89 0.89 0.88 0.90 0.92 0.93 0.93 0.94 0.98 0.98 1.03
0.78 0.83 0.85 0.85 0.89 0.90 0.90 0.91 0.91 0.90 0.90 0.91 0.89 0.98 1.00 0.98 1.00 0.99 0.99 0.99 1.01 0.99 1.00 1.04 1.00 0.97 0.94 0.91 0.91 0.91 0.91 0.93 0.95 0.97 0.97 0.96 0.97 0.98 0.99 1.01 1.00 1.01
0.69 0.71 0.72 0.76 0.80 0.83 0.86 0.87 0.87 0.87 0.89 0.90 0.91 0.91 0.92 0.94 0.96 0.97 0.96 0.92 0.93 0.97 0.97 1.00 0.96 1.03 0.99 0.96 0.95 0.95 0.94 0.93 0.94 0.97 0.98 0.97 0.97 0.98 0.99 0.99 0.97 0.94
0.64 0.64 0.65 0.67 0.68 0.70 0.73 0.77 0.82 0.86 0.87 0.89 0.90 0.90 0.89 0.90 0.92 0.96 0.99 0.97 0.96 0.97 0.96 0.97 1.03 1.10 1.06 1.03 0.98 0.94 0.91 0.89 0.92 1.00 1.01 1.00 1.02 1.02 1.02 0.96 0.92 0.92
0.67 0.64 0.64 0.63 0.66 0.69 0.68 0.67 0.69 0.74 0.79 0.84 0.87 0.87 0.89 0.89 0.89 0.89 0.90 0.97 0.98 0.99 0.96 0.92 0.93 0.97 1.01 1.02 1.00 0.96 0.94 0.93 0.93 0.98 0.95 0.93 0.93 0.95 0.96 0.94 0.93 0.92
0.66 0.64 0.63 0.63 0.62 0.60 0.61 0.65 0.68 0.71 0.75 0.82 0.83 0.83 0.82 0.84 0.86 0.85 0.90 0.95 0.94 0.94 0.90 0.92 0.95 0.99 0.98 1.00 0.99 0.96 0.94 0.92 0.91 0.97 0.93 0.90 0.91 0.91 0.91 0.94 0.95 0.94
0.63 0.63 0.62 0.61 0.60 0.59 0.60 0.61 0.65 0.68 0.70 0.77 0.78 0.80 0.82 0.83 0.84 0.84 0.86 0.87 0.89 0.92 0.92 0.89 0.91 0.99 1.03 1.00 0.98 0.95 0.93 0.91 0.90 0.90 0.92 0.92 0.88 0.86 0.90 0.89 0.89 0.79
0.58 0.58 0.58 0.58 0.58 0.59 0.61 0.61 0.62 0.63 0.65 0.69 0.72 0.73 0.75 0.79 0.84 0.85 0.85 0.85 0.88 0.88 0.89 0.85 0.89 0.94 0.99 0.99 0.96 0.94 0.93 0.92 0.89 0.89 0.87 0.85 0.86 0.86 0.87 0.85 0.75 0.72
0.52 0.53 0.56 0.57 0.57 0.57 0.58 0.58 0.59 0.59 0.62 0.65 0.67 0.69 0.68 0.69 0.76 0.81 0.83 0.82 0.82 0.85 0.85 0.87 0.91 0.93 0.96 0.97 0.93 0.90 0.91 0.93 0.94 0.89 0.85 0.85 0.87 0.80 0.77 0.72 0.70 0.69

ECMWFNIL_prec_pwat_030.txt.gz
Precipitable_Water
1.02 1.04 1.00 0.89 0.83 0.85 0.86 0.84 0.82 0.85 0.88 0.88 0.91 0.89 0.85 0.81 0.79 0.76 0.76 0.78 0.78 0.79 0.81 0.75 0.71 0.71 0.72 0.72 0.73 0.74 0.78 0.86 0.88 0.91 0.94 0.96 0.93 0.91 0.89 0.90 0.89 0.86
0.98 1.01 0.99 0.95 0.92 0.91 0.90 0.88 0.85 0.88 0.86 0.92 0.94 0.87 0.81 0.74 0.77 0.77 0.71 0.70 0.70 0.70 0.71 0.65 0.66 0.68 0.69 0.64 0.63 0.65 0.68 0.74 0.78 0.85 0.83 0.82 0.82 0.81 0.76 0.72 0.70 0.73
1.01 1.00 0.99 0.97 0.95 0.90 0.89 0.88 0.87 0.86 0.88 0.94 0.91 0.82 0.75 0.72 0.68 0.68 0.67 0.64 0.62 0.60 0.60 0.63 0.63 0.65 0.64 0.61 0.60 0.62 0.64 0.66 0.67 0.71 0.72 0.69 0.69 0.68 0.64 0.64 0.61 0.60
1.01 1.01 0.99 0.98 1.00 0.93 0.84 0.83 0.82 0.82 0.87 0.84 0.81 0.77 0.74 0.70 0.66 0.61 0.57 0.53 0.51 0.51 0.52 0.55 0.59 0.60 0.61 0.58 0.58 0.60 0.62 0.60 0.60 0.61 0.60 0.61 0.58 0.58 0.62 0.64 0.62 0.59
1.02 1.02 1.03 1.03 1.01 0.90 0.84 0.85 0.83 0.84 0.83 0.82 0.77 0.72 0.69 0.65 0.59 0.54 0.52 0.50 0.47 0.47 0.49 0.49 0.52 0.54 0.54 0.54 0.53 0.51 0.50 0.49 0.50 0.50 0.47 0.46 0.49 0.50 0.51 0.53 0.51 0.49
1.06 1.04 1.06 1.05 1.00 0.91 0.89 0.86 0.85 0.83 0.83 0.76 0.72 0.70 0.65 0.61 0.57 0.54 0.49 0.46 0.46 0.44 0.43 0.44 0.44 0.49 0.49 0.46 0.46 0.44 0.44 0.44 0.44 0.42 0.40 0.40 0.44 0.48 0.49 0.50 0.49 0.50
1.01 1.00 1.05 1.08 1.01 0.93 0.92 0.87 0.84 0.83 0.80 0.73 0.68 0.69 0.66 0.59 0.57 0.53 0.50 0.49 0.45 0.43 0.43 0.42 0.43 0.44 0.46 0.44 0.43 0.43 0.40 0.39 0.41 0.41 0.42 0.46 0.48 0.51 0.56 0.55 0.54 0.54
1.02 1.02 1.05 1.04 0.99 0.92 0.90 0.84 0.81 0.80 0.76 0.68 0.64 0.67 0.63 0.59 0.56 0.52 0.52 0.50 0.46 0.46 0.44 0.43 0.43 0.43 0.45 0.47 0.46 0.43 0.42 0.43 0.43 0.46 0.46 0.48 0.53 0.55 0.57 0.59 0.60 0.59
1.06 1.04 1.03 1.02 0.98 0.94 0.94 0.87 0.82 0.80 0.74 0.68 0.68 0.66 0.67 0.65 0.57 0.52 0.51 0.51 0.50 0.50 0.47 0.46 0.47 0.48 0.52 0.53 0.50 0.47 0.49 0.52 0.55 0.55 0.56 0.59 0.60 0.60 0.60 0.61 0.60 0.58
1.07 1.05 1.04 1.02 1.00 1.00 1.00 0.92 0.86 0.84 0.76 0.69 0.72 0.66 0.67 0.68 0.62 0.52 0.52 0.52 0.52 0.52 0.51 0.50 0.52 0.54 0.54 0.55 0.53 0.54 0.56 0.59 0.61 0.61 0.62 0.62 0.61 0.61 0.61 0.61 0.59 0.58
1.05 1.04 1.03 1.04 1.03 1.03 1.02 0.95 0.90 0.89 0.81 0.74 0.74 0.67 0.70 0.68 0.64 0.60 0.53 0.53 0.51 0.52 0.54 0.54 0.57 0.56 0.55 0.54 0.57 0.60 0.63 0.64 0.64 0.64 0.64 0.62 0.62 0.63 0.62 0.63 0.61 0.61
1.06 1.04 1.03 1.03 1.04 1.06 1.07 1.02 0.98 0.95 0.90 0.82 0.77 0.70 0.73 0.71 0.67 0.62 0.58 0.55 0.53 0.53 0.55 0.56 0.57 0.57 0.58 0.57 0.57 0.58 0.63 0.65 0.66 0.66 0.68 0.67 0.67 0.66 0.66 0.68 0.66 0.67
1.04 1.04 1.05 1.05 1.06 1.11 1.11 1.09 1.04 1.00 0.96 0.86 0.84 0.77 0.74 0.72 0.72 0.65 0.64 0.61 0.57 0.55 0.55 0.56 0.55 0.55 0.59 0.62 0.63 0.62 0.64 0.64 0.66 0.67 0.69 0.71 0.71 0.70 0.70 0.72 0.71 0.74
1.06 1.08 1.09 1.09 1.09 1.08 1.08 1.08 1.08 1.05 1.00 0.96 0.91 0.85 0.76 0.73 0.74 0.71 0.71 0.67 0.64 0.60 0.59 0.58 0.58 0.57 0.59 0.61 0.62 0.65 0.66 0.65 0.69 0.66 0.68 0.71 0.71 0.73 0.71 0.72 0.73 0.78
1.09 1.09 1.11 1.11 1.08 1.04 1.03 1.03 1.03 1.04 1.02 0.98 0.95 0.92 0.89 0.83 0.77 0.73 0.76 0.72 0.73 0.68 0.66 0.65 0.63 0.61 0.61 0.63 0.63 0.63 0.65 0.63 0.66 0.65 0.67 0.68 0.71 0.71 0.74 0.75 0.74 0.79
1.08 1.07 1.07 1.05 1.02 1.02 1.04 1.02 1.00 0.99 0.97 0.97 0.98 0.96 0.94 0.91 0.86 0.81 0.78 0.78 0.76 0.76 0.73 0.73 0.71 0.71 0.69 0.67 0.66 0.66 0.67 0.67 0.67 0.67 0.67 0.69 0.69 0.70 0.74 0.79 0.84 0.82
0.98 0.99 1.00 0.96 0.99 0.99 0.99 0.99 0.96 0.95 0.96 0.95 0.96 0.96 0.92 0.91 0.90 0.86 0.84 0.83 0.81 0.79 0.80 0.81 0.84 0.87 0.81 0.75 0.73 0.71 0.70 0.70 0.69 0.69 0.69 0.71 0.72 0.72 0.76 0.83 0.86 0.89
0.96 0.94 0.93 0.92 0.95 0.93 0.96 0.97 0.95 0.93 0.91 0.91 0.91 0.90 0.91 0.92 0.91 0.90 0.91 0.93 0.94 0.93 0.93 0.90 0.89 0.95 0.92 0.89 0.84 0.82 0.82 0.82 0.81 0.78 0.77 0.76 0.80 0.80 0.83 0.87 0.90 0.91
0.81 0.87 0.91 0.88 0.92 0.91 0.89 0.92 0.90 0.88 0.87 0.87 0.86 0.88 0.88 0.84 0.83 0.82 0.85 0.89 0.89 0.89 0.93 0.98 0.99 0.96 0.94 0.94 0.93 0.93 0.90 0.90 0.87 0.86 0.84 0.83 0.84 0.86 0.91 0.92 0.97 0.97
0.78 0.76 0.79 0.80 0.84 0.82 0.83 0.86 0.87 0.87 0.88 0.86 0.84 0.83 0.82 0.81 0.83 0.85 0.88 0.88 0.88 0.90 0.93 0.97 0.98 1.00 0.97 0.96 0.98 0.98 0.95 0.92 0.91 0.92 0.92 0.92 0.94 0.96 1.00 0.95 1.02 0.95
0.71 0.70 0.70 0.70 0.70 0.72 0.75 0.76 0.79 0.81 0.83 0.87 0.89 0.87 0.84 0.82 0.83 0.82 0.84 0.85 0.87 0.89 0.90 0.90 0.92 0.96 0.95 0.92 0.91 0.96 1.00 0.96 0.95 0.95 0.96 0.98 1.00 1.02 1.08 1.10 1.04 1.03
0.69 0.69 0.70 0.68 0.67 0.68 0.70 0.72 0.73 0.76 0.74 0.79 0.83 0.85 0.88 0.88 0.88 0.87 0.85 0.83 0.84 0.86 0.85 0.82 0.86 0.89 0.90 0.91 0.94 0.97 0.96 0.93 0.92 0.92 0.93 0.97 0.97 0.95 0.93 1.01 1.05 1.02
0.67 0.67 0.67 0.68 0.69 0.66 0.65 0.65 0.66 0.71 0.75 0.78 0.77 0.78 0.81 0.83 0.83 0.83 0.85 0.84 0.83 0.84 0.84 0.86 0.85 0.90 0.89 0.87 0.90 0.93 0.91 0.89 0.88 0.87 0.89 0.90 0.91 0.95 0.99 1.02 1.02 0.99
0.65 0.64 0.64 0.66 0.68 0.67 0.67 0.68 0.70 0.70 0.71 0.74 0.72 0.72 0.74 0.79 0.83 0.86 0.88 0.87 0.84 0.82 0.84 0.83 0.85 0.86 0.87 0.89 0.89 0.92 0.93 0.90 0.87 0.85 0.86 0.90 0.91 0.95 0.97 0.97 0.97 0.97
0.64 0.63 0.63 0.64 0.66 0.68 0.69 0.68 0.68 0.68 0.68 0.67 0.66 0.66 0.66 0.69 0.69 0.69 0.72 0.77 0.80 0.80 0.82 0.84 0.87 0.91 0.92 0.91 0.91 0.91 0.91 0.91 0.89 0.86 0.85 0.86 0.87 0.89 0.94 0.93 0.91 0.92
0.54 0.54 0.56 0.57 0.59 0.60 0.63 0.64 0.65 0.63 0.61 0.59 0.59 0.61 0.62 0.63 0.63 0.64 0.64 0.66 0.71 0.77 0.79 0.79 0.79 0.82 0.84 0.85 0.84 0.85 0.88 0.90 0.91 0.88 0.85 0.85 0.87 0.87 0.84 0.85 0.85 0.86

ECMWFNIL_prec_pwat_033.txt.gz
Precipitable_Water
0.99 0.97 0.89 0.90 0.84 0.81 0.84 0.83 0.90 0.88 0.87 0.89 0.89 0.89 0.85 0.84 0.82 0.84 0.85 0.79 0.76 0.74 0.78 0.80 0.81 0.81 0.82 0.81 0.82 0.85 0.89 0.93 0.95 0.96 0.95 0.94 0.93 0.95 0.93 0.94 0.98 1.03
1.01 0.98 0.93 0.92 0.88 0.90 0.93 0.92 0.91 0.89 0.90 0.92 0.93 0.90 0.87 0.84 0.80 0.81 0.80 0.77 0.75 0.76 0.78 0.78 0.77 0.77 0.78 0.76 0.78 0.80 0.84 0.91 0.90 0.93 0.89 0.89 0.90 0.92 0.92 0.93 0.95 0.97
1.04 0.98 0.94 0.92 0.89 0.91 0.94 0.95 0.94 0.91 0.88 0.90 0.91 0.87 0.86 0.82 0.77 0.78 0.75 0.73 0.70 0.67 0.68 0.71 0.70 0.70 0.70 0.70 0.71 0.74 0.77 0.80 0.81 0.83 0.81 0.78 0.75 0.73 0.74 0.75 0.77 0.80
1.04 1.00 0.97 0.93 0.95 0.95 0.96 0.93 0.93 0.93 0.92 0.89 0.84 0.84 0.82 0.74 0.74 0.71 0.70 0.68 0.61 0.59 0.63 0.66 0.66 0.65 0.65 0.65 0.66 0.68 0.71 0.73 0.76 0.78 0.73 0.69 0.68 0.69 0.67 0.67 0.65 0.69
1.04 1.03 1.01 0.98 1.00 1.00 0.97 0.92 0.91 0.92 0.92 0.90 0.85 0.80 0.72 0.67 0.65 0.61 0.57 0.54 0.54 0.54 0.57 0.59 0.61 0.60 0.60 0.61 0.63 0.64 0.66 0.66 0.66 0.68 0.66 0.65 0.66 0.65 0.65 0.65 0.63 0.63
1.06 1.07 1.04 1.00 1.02 0.99 0.94 0.91 0.91 0.91 0.92 0.87 0.80 0.74 0.69 0.66 0.58 0.53 0.49 0.47 0.49 0.50 0.51 0.53 0.54 0.55 0.56 0.56 0.58 0.59 0.60 0.60 0.58 0.57 0.58 0.58 0.58 0.57 0.53 0.51 0.53 0.56
1.05 1.06 1.03 1.03 1.03 0.99 0.91 0.91 0.91 0.91 0.89 0.82 0.78 0.72 0.69 0.63 0.57 0.53 0.50 0.48 0.45 0.44 0.45 0.47 0.47 0.48 0.49 0.49 0.50 0.51 0.51 0.49 0.49 0.50 0.50 0.51 0.51 0.49 0.48 0.47 0.47 0.46
1.09 1.10 1.07 1.04 1.02 0.96 0.92 0.92 0.88 0.88 0.83 0.78 0.72 0.70 0.68 0.64 0.58 0.54 0.53 0.51 0.47 0.46 0.46 0.45 0.44 0.44 0.46 0.48 0.46 0.44 0.47 0.48 0.49 0.48 0.48 0.50 0.50 0.48 0.51 0.53 0.51 0.48
1.14 1.13 1.11 1.08 1.03 0.99 0.94 0.91 0.89 0.85 0.78 0.70 0.72 0.70 0.71 0.70 0.60 0.57 0.57 0.54 0.51 0.50 0.46 0.46 0.46 0.48 0.50 0.47 0.45 0.47 0.50 0.52 0.53 0.55 0.55 0.53 0.52 0.53 0.56 0.58 0.57 0.56
1.11 1.11 1.09 1.07 1.02 1.02 0.95 0.93 0.90 0.85 0.77 0.71 0.73 0.69 0.70 0.72 0.65 0.58 0.58 0.57 0.55 0.52 0.50 0.50 0.52 0.55 0.52 0.50 0.52 0.58 0.55 0.55 0.57 0.60 0.61 0.62 0.62 0.62 0.62 0.63 0.62 0.61
1.09 1.09 1.06 1.06 1.02 1.04 0.97 0.96 0.92 0.88 0.80 0.75 0.74 0.67 0.71 0.73 0.66 0.60 0.59 0.59 0.57 0.54 0.53 0.54 0.55 0.55 0.54 0.53 0.59 0.61 0.59 0.58 0.61 0.64 0.65 0.65 0.64 0.63 0.63 0.62 0.61 0.61
1.10 1.09 1.08 1.10 1.08 1.07 1.02 0.99 0.96 0.92 0.84 0.84 0.80 0.70 0.73 0.74 0.67 0.64 0.61 0.60 0.57 0.57 0.57 0.57 0.57 0.54 0.53 0.54 0.59 0.60 0.59 0.60 0.63 0.64 0.65 0.65 0.64 0.63 0.62 0.62 0.59 0.59
1.13 1.16 1.15 1.15 1.13 1.09 1.04 1.00 0.97 0.95 0.90 0.85 0.87 0.79 0.77 0.73 0.69 0.65 0.64 0.63 0.57 0.60 0.59 0.58 0.58 0.56 0.54 0.53 0.55 0.59 0.59 0.60 0.63 0.65 0.67 0.66 0.65 0.64 0.64 0.63 0.62 0.60
1.15 1.12 1.10 1.12 1.15 1.14 1.11 1.06 1.01 0.98 0.95 0.91 0.89 0.82 0.81 0.80 0.73 0.68 0.70 0.69 0.64 0.61 0.61 0.61 0.60 0.59 0.59 0.58 0.55 0.57 0.59 0.62 0.63 0.66 0.67 0.66 0.66 0.67 0.68 0.67 0.66 0.65
1.17 1.13 1.12 1.14 1.15 1.12 1.08 1.04 1.01 1.00 0.97 0.93 0.92 0.91 0.88 0.83 0.82 0.74 0.75 0.70 0.72 0.68 0.66 0.64 0.62 0.59 0.61 0.61 0.60 0.60 0.59 0.59 0.60 0.62 0.65 0.66 0.66 0.66 0.69 0.70 0.72 0.72
1.11 1.11 1.10 1.11 1.10 1.07 1.05 1.06 1.05 1.02 0.99 0.93 0.94 0.91 0.90 0.89 0.82 0.76 0.76 0.73 0.73 0.76 0.74 0.70 0.67 0.65 0.65 0.65 0.64 0.64 0.64 0.63 0.63 0.61 0.61 0.63 0.63 0.65 0.65 0.68 0.70 0.72
1.04 1.06 1.08 1.07 1.04 1.06 1.07 1.05 1.06 1.07 1.03 0.97 0.93 0.92 0.90 0.89 0.89 0.84 0.79 0.78 0.77 0.79 0.79 0.78 0.77 0.75 0.71 0.70 0.69 0.68 0.68 0.67 0.67 0.67 0.68 0.69 0.70 0.68 0.70 0.71 0.72 0.74
0.97 0.97 0.96 0.97 0.95 0.95 1.00 0.99 1.05 1.03 1.00 0.96 0.93 0.90 0.90 0.89 0.89 0.88 0.87 0.84 0.81 0.79 0.79 0.79 0.80 0.82 0.79 0.76 0.75 0.74 0.73 0.72 0.71 0.71 0.72 0.74 0.75 0.76 0.77 0.76 0.74 0.74
1.03 0.99 0.95 0.94 0.93 0.93 0.93 0.94 1.06 0.99 0.96 0.93 0.91 0.94 0.93 0.90 0.87 0.88 0.88 0.88 0.86 0.83 0.80 0.81 0.80 0.81 0.81 0.79 0.80 0.81 0.81 0.80 0.81 0.80 0.78 0.80 0.83 0.83 0.83 0.80 0.79 0.81
0.72 0.77 0.87 0.97 1.01 0.98 0.95 0.93 0.95 0.95 0.95 0.95 0.94 0.94 0.92 0.92 0.92 0.88 0.86 0.84 0.84 0.84 0.83 0.83 0.82 0.83 0.81 0.81 0.82 0.82 0.82 0.83 0.84 0.88 0.89 0.86 0.84 0.86 0.85 0.87 0.88 0.89
0.70 0.72 0.72 0.72 0.75 0.78 0.88 0.91 0.91 0.87 0.85 0.85 0.84 0.87 0.89 0.90 0.90 0.89 0.90 0.89 0.87 0.85 0.83 0.83 0.83 0.84 0.83 0.82 0.81 0.82 0.83 0.82 0.82 0.84 0.88 0.89 0.90 0.89 0.89 0.89 0.91 0.91
0.69 0.68 0.67 0.66 0.67 0.68 0.69 0.68 0.70 0.79 0.86 0.88 0.81 0.79 0.83 0.85 0.88 0.90 0.89 0.90 0.91 0.89 0.86 0.82 0.84 0.85 0.83 0.82 0.82 0.82 0.81 0.81 0.81 0.82 0.86 0.89 0.91 0.96 0.94 0.91 0.91 0.92
0.63 0.62 0.62 0.63 0.65 0.66 0.66 0.66 0.66 0.67 0.69 0.71 0.75 0.82 0.81 0.78 0.79 0.84 0.87 0.86 0.86 0.86 0.83 0.82 0.82 0.83 0.82 0.80 0.78 0.78 0.78 0.77 0.77 0.78 0.81 0.85 0.86 0.89 0.91 0.93 0.93 0.92
0.60 0.59 0.59 0.59 0.59 0.59 0.61 0.63 0.65 0.66 0.67 0.70 0.69 0.68 0.66 0.72 0.79 0.81 0.84 0.87 0.86 0.84 0.83 0.80 0.78 0.79 0.79 0.78 0.77 0.77 0.78 0.77 0.78 0.77 0.78 0.80 0.84 0.86 0.86 0.86 0.88 0.89
0.62 0.61 0.61 0.61 0.61 0.60 0.59 0.59 0.59 0.61 0.64 0.67 0.68 0.69 0.70 0.71 0.71 0.73 0.77 0.79 0.78 0.74 0.75 0.74 0.74 0.75 0.75 0.73 0.73 0.75 0.77 0.78 0.78 0.77 0.76 0.78 0.80 0.81 0.84 0.85 0.86 0.88
0.63 0.62 0.60 0.60 0.60 0.60 0.60 0.60 0.60 0.59 0.59 0.60 0.61 0.62 0.61 0.62 0.66 0.68 0.67 0.71 0.80 0.81 0.79 0.77 0.74 0.72 0.71 0.70 0.72 0.72 0.72 0.72 0.73 0.71 0.70 0.74 0.78 0.79 0.80 0.83 0.85 0.86

ECMWFNIL_prec_pwat_036.txt.gz
Precipitable_Water
1.14 1.06 0.96 0.90 0.85 0.81 0.81 0.83 0.86 0.87 0.90 0.92 0.85 0.81 0.78 0.79 0.81 0.79 0.80 0.78 0.76 0.77 0.77 0.77 0.81 0.80 0.78 0.79 0.82 0.83 0.85 0.87 0.89 0.89 0.89 0.89 0.89 0.89 0.88 0.92 0.97 1.02
1.10 1.06 0.98 0.88 0.82 0.78 0.81 0.87 0.91 0.94 0.94 0.93 0.88 0.86 0.85 0.85 0.81 0.80 0.77 0.76 0.76 0.75 0.74 0.77 0.79 0.76 0.74 0.76 0.79 0.80 0.81 0.86 0.85 0.90 0.88 0.89 0.91 0.92 0.91 0.93 0.97 1.05
1.07 1.03 0.96 0.87 0.81 0.80 0.85 0.92 0.96 0.97 0.95 0.97 0.94 0.88 0.86 0.85 0.81 0.79 0.77 0.74 0.73 0.74 0.74 0.75 0.73 0.71 0.68 0.70 0.75 0.77 0.79 0.83 0.84 0.86 0.87 0.88 0.91 0.91 0.93 0.96 0.97 1.01
1.06 1.04 0.98 0.95 0.90 0.88 0.91 0.93 0.96 0.96 0.98 0.98 0.95 0.93 0.89 0.84 0.78 0.75 0.74 0.72 0.70 0.69 0.70 0.69 0.67 0.66 0.64 0.65 0.70 0.73 0.77 0.79 0.79 0.78 0.76 0.79 0.82 0.84 0.85 0.89 0.91 0.93
1.06 1.06 1.04 1.00 0.96 0.94 0.94 0.94 0.94 0.95 0.98 1.00 0.98 0.95 0.88 0.80 0.70 0.70 0.68 0.65 0.62 0.62 0.63 0.61 0.61 0.60 0.59 0.61 0.67 0.69 0.71 0.71 0.71 0.70 0.68 0.67 0.72 0.73 0.73 0.76 0.77 0.78
1.09 1.09 1.05 1.00 0.97 0.94 0.94 0.95 0.95 0.96 0.99 0.98 0.95 0.93 0.85 0.72 0.66 0.64 0.62 0.57 0.55 0.59 0.58 0.57 0.57 0.56 0.55 0.57 0.61 0.64 0.67 0.68 0.68 0.67 0.64 0.61 0.62 0.66 0.69 0.69 0.68 0.67
1.11 1.10 1.05 1.02 0.99 0.97 0.95 0.97 0.96 0.97 0.98 0.95 0.91 0.85 0.76 0.66 0.63 0.60 0.55 0.50 0.52 0.55 0.55 0.55 0.53 0.52 0.54 0.55 0.56 0.57 0.59 0.63 0.66 0.65 0.63 0.61 0.59 0.58 0.62 0.65 0.66 0.67
1.15 1.14 1.09 1.05 1.02 1.00 0.97 0.98 0.97 0.96 0.96 0.88 0.81 0.73 0.68 0.64 0.57 0.50 0.49 0.49 0.49 0.51 0.53 0.52 0.52 0.51 0.52 0.53 0.52 0.53 0.54 0.56 0.59 0.61 0.59 0.58 0.57 0.54 0.54 0.56 0.58 0.60
1.17 1.15 1.11 1.07 1.04 1.04 1.01 0.98 0.97 0.94 0.90 0.79 0.72 0.66 0.70 0.66 0.57 0.54 0.51 0.48 0.46 0.49 0.50 0.49 0.48 0.48 0.48 0.49 0.50 0.50 0.48 0.49 0.53 0.55 0.53 0.50 0.48 0.47 0.48 0.50 0.50 0.52
1.23 1.25 1.20 1.12 1.05 1.07 1.03 1.00 0.99 0.94 0.85 0.74 0.68 0.68 0.72 0.70 0.63 0.59 0.56 0.51 0.47 0.47 0.48 0.47 0.46 0.47 0.47 0.48 0.47 0.46 0.45 0.45 0.48 0.51 0.50 0.46 0.44 0.43 0.44 0.45 0.46 0.47
1.16 1.15 1.10 1.12 1.15 1.09 1.04 1.03 1.00 0.94 0.84 0.74 0.72 0.71 0.75 0.73 0.66 0.63 0.59 0.55 0.53 0.49 0.46 0.48 0.49 0.50 0.49 0.49 0.50 0.50 0.49 0.48 0.50 0.51 0.51 0.50 0.51 0.52 0.53 0.52 0.50 0.50
1.17 1.16 1.16 1.14 1.17 1.13 1.07 1.04 1.00 0.95 0.86 0.77 0.76 0.73 0.76 0.76 0.69 0.62 0.60 0.57 0.57 0.55 0.51 0.51 0.53 0.54 0.52 0.52 0.52 0.51 0.51 0.53 0.55 0.56 0.57 0.58 0.59 0.60 0.59 0.59 0.57 0.56
1.14 1.17 1.20 1.15 1.18 1.12 1.06 1.06 1.02 0.96 0.89 0.81 0.81 0.76 0.75 0.75 0.72 0.64 0.63 0.59 0.57 0.58 0.57 0.56 0.57 0.55 0.54 0.54 0.57 0.55 0.53 0.56 0.60 0.62 0.63 0.64 0.63 0.63 0.63 0.63 0.63 0.62
1.13 1.14 1.20 1.18 1.18 1.14 1.09 1.06 1.02 1.01 0.95 0.89 0.88 0.80 0.78 0.78 0.73 0.67 0.67 0.65 0.60 0.58 0.60 0.61 0.61 0.58 0.55 0.57 0.60 0.59 0.58 0.58 0.62 0.64 0.64 0.65 0.65 0.64 0.65 0.64 0.64 0.64
1.15 1.16 1.16 1.15 1.12 1.11 1.07 1.07 1.05 1.03 1.01 0.99 0.94 0.86 0.87 0.82 0.77 0.71 0.71 0.70 0.68 0.63 0.62 0.63 0.63 0.61 0.58 0.58 0.62 0.60 0.60 0.60 0.62 0.64 0.65 0.65 0.65 0.65 0.65 0.65 0.64 0.63
1.14 1.14 1.13 1.14 1.14 1.14 1.14 1.12 1.08 1.10 1.10 1.05 0.98 0.93 0.91 0.91 0.84 0.77 0.77 0.74 0.74 0.70 0.68 0.66 0.65 0.65 0.64 0.61 0.61 0.61 0.60 0.61 0.63 0.65 0.66 0.66 0.65 0.65 0.65 0.66 0.66 0.65
1.14 1.10 1.12 1.10 1.08 1.14 1.13 1.11 1.06 1.08 1.11 1.07 1.01 0.96 0.93 0.91 0.89 0.83 0.80 0.80 0.79 0.78 0.76 0.74 0.72 0.70 0.67 0.65 0.65 0.63 0.62 0.61 0.61 0.63 0.66 0.66 0.65 0.65 0.65 0.67 0.69 0.71
1.07 1.05 1.06 1.07 1.09 1.10 1.10 1.08 1.07 1.06 1.09 1.11 1.04 1.00 0.96 0.96 0.92 0.88 0.82 0.80 0.78 0.78 0.78 0.78 0.78 0.79 0.76 0.73 0.70 0.68 0.67 0.64 0.62 0.61 0.63 0.65 0.66 0.65 0.66 0.67 0.68 0.70
1.02 1.02 1.03 1.03 1.03 1.03 1.04 1.05 1.06 1.10 1.10 1.04 1.01 1.02 1.03 0.97 0.95 0.94 0.91 0.86 0.81 0.77 0.76 0.77 0.78 0.80 0.79 0.79 0.79 0.78 0.75 0.73 0.70 0.66 0.63 0.62 0.63 0.65 0.66 0.66 0.68 0.69
0.79 0.80 0.83 0.86 0.89 0.92 0.96 1.00 1.01 1.00 1.01 0.98 1.02 1.02 1.01 1.00 0.97 0.94 0.93 0.92 0.90 0.87 0.84 0.82 0.81 0.82 0.81 0.78 0.77 0.79 0.81 0.81 0.81 0.80 0.78 0.73 0.69 0.67 0.67 0.67 0.66 0.66
0.72 0.73 0.75 0.77 0.78 0.79 0.81 0.82 0.82 0.85 0.89 0.98 1.01 1.00 1.02 1.01 0.96 0.96 0.97 0.94 0.92 0.91 0.88 0.86 0.87 0.88 0.86 0.84 0.82 0.78 0.76 0.77 0.79 0.81 0.81 0.81 0.82 0.82 0.81 0.80 0.78 0.75
0.74 0.73 0.73 0.74 0.75 0.75 0.76 0.75 0.76 0.76 0.77 0.81 0.82 0.84 0.88 0.94 0.95 0.95 0.95 0.96 0.97 0.94 0.90 0.87 0.89 0.90 0.90 0.89 0.88 0.86 0.84 0.81 0.78 0.77 0.77 0.77 0.78 0.81 0.84 0.88 0.88 0.86
0.72 0.70 0.68 0.68 0.68 0.68 0.68 0.68 0.68 0.70 0.73 0.75 0.73 0.72 0.70 0.67 0.69 0.72 0.78 0.83 0.88 0.90 0.88 0.88 0.90 0.93 0.93 0.93 0.92 0.91 0.89 0.86 0.83 0.81 0.80 0.80 0.81 0.83 0.86 0.88 0.87 0.90
0.68 0.66 0.63 0.62 0.64 0.64 0.65 0.65 0.64 0.63 0.62 0.64 0.63 0.64 0.64 0.65 0.66 0.66 0.68 0.71 0.76 0.81 0.87 0.86 0.84 0.86 0.87 0.89 0.90 0.92 0.91 0.89 0.88 0.83 0.82 0.82 0.83 0.87 0.90 0.92 0.92 0.89
0.66 0.64 0.63 0.61 0.60 0.60 0.60 0.60 0.62 0.63 0.64 0.64 0.63 0.63 0.63 0.64 0.63 0.62 0.62 0.64 0.66 0.69 0.74 0.77 0.79 0.83 0.87 0.88 0.87 0.87 0.86 0.85 0.83 0.81 0.78 0.78 0.78 0.79 0.83 0.86 0.87 0.87
0.67 0.66 0.65 0.64 0.63 0.62 0.61 0.61 0.60 0.59 0.59 0.59 0.60 0.61 0.62 0.64 0.64 0.64 0.62 0.62 0.63 0.63 0.63 0.64 0.65 0.67 0.70 0.73 0.77 0.81 0.83 0.81 0.80 0.77 0.73 0.73 0.75 0.77 0.79 0.84 0.86 0.87

ECMWFNIL_prec_pwat_039.txt.gz
Precipitable_Water
1.02 0.98 0.94 0.95 0.94 0.92 0.86 0.83 0.83 0.83 0.85 0.91 0.90 0.89 0.84 0.83 0.85 0.85 0.84 0.83 0.82 0.79 0.79 0.79 0.82 0.81 0.79 0.79 0.84 0.86 0.85 0.84 0.84 0.86 0.86 0.87 0.88 0.89 0.90 0.93 0.93 0.95
1.02 0.99 0.99 0.99 0.96 0.92 0.89 0.86 0.85 0.86 0.89 0.93 0.95 0.92 0.89 0.86 0.82 0.81 0.83 0.82 0.80 0.79 0.78 0.79 0.80 0.77 0.73 0.73 0.78 0.78 0.77 0.80 0.79 0.86 0.83 0.84 0.86 0.88 0.87 0.88 0.90 0.92
1.02 1.03 1.03 0.97 0.94 0.90 0.87 0.90 0.90 0.90 0.93 0.96 0.97 0.95 0.90 0.88 0.81 0.80 0.83 0.84 0.79 0.76 0.76 0.79 0.79 0.74 0.71 0.73 0.76 0.76 0.76 0.78 0.78 0.82 0.85 0.85 0.88 0.89 0.90 0.93 0.94 0.96
1.02 1.06 1.06 1.01 0.96 0.88 0.87 0.89 0.90 0.92 0.96 0.95 0.95 0.94 0.91 0.88 0.83 0.79 0.78 0.80 0.77 0.74 0.76 0.78 0.73 0.68 0.67 0.71 0.74 0.74 0.77 0.79 0.81 0.82 0.83 0.86 0.89 0.91 0.91 0.94 0.95 0.97
1.05 1.09 1.11 1.03 0.95 0.89 0.89 0.89 0.89 0.92 0.95 0.96 0.97 0.94 0.91 0.87 0.82 0.77 0.73 0.74 0.73 0.69 0.71 0.72 0.69 0.63 0.62 0.66 0.72 0.72 0.74 0.76 0.78 0.78 0.77 0.79 0.82 0.85 0.88 0.90 0.90 0.91
1.13 1.15 1.13 1.03 0.96 0.91 0.91 0.90 0.90 0.93 0.96 0.96 0.96 0.94 0.91 0.87 0.81 0.72 0.69 0.69 0.67 0.63 0.65 0.67 0.64 0.60 0.59 0.64 0.71 0.71 0.71 0.70 0.70 0.70 0.68 0.69 0.70 0.74 0.79 0.82 0.83 0.84
1.07 1.11 1.10 1.06 1.02 0.99 0.95 0.93 0.93 0.96 0.99 0.99 0.97 0.90 0.89 0.84 0.75 0.69 0.67 0.66 0.61 0.58 0.60 0.60 0.57 0.54 0.54 0.61 0.69 0.69 0.68 0.68 0.67 0.66 0.64 0.65 0.65 0.66 0.69 0.70 0.72 0.77
1.07 1.07 1.08 1.06 1.04 1.03 0.99 0.98 0.96 0.98 1.01 0.99 0.92 0.87 0.83 0.74 0.69 0.67 0.66 0.63 0.57 0.58 0.59 0.58 0.56 0.53 0.53 0.58 0.62 0.64 0.65 0.67 0.66 0.63 0.61 0.62 0.63 0.63 0.63 0.63 0.64 0.70
1.13 1.10 1.08 1.09 1.07 1.05 1.02 1.00 0.99 1.01 1.02 0.97 0.88 0.80 0.72 0.68 0.65 0.58 0.55 0.54 0.52 0.55 0.56 0.56 0.55 0.53 0.53 0.55 0.57 0.58 0.59 0.62 0.65 0.64 0.60 0.58 0.59 0.61 0.61 0.62 0.61 0.65
1.10 1.09 1.08 1.08 1.07 1.06 1.03 1.02 1.03 1.03 1.03 0.96 0.81 0.69 0.63 0.66 0.61 0.54 0.50 0.49 0.50 0.52 0.53 0.53 0.53 0.52 0.52 0.54 0.56 0.57 0.58 0.58 0.61 0.63 0.61 0.59 0.57 0.57 0.58 0.59 0.60 0.61
1.10 1.08 1.08 1.08 1.09 1.10 1.08 1.07 1.06 1.05 1.03 0.93 0.74 0.63 0.65 0.65 0.62 0.57 0.53 0.51 0.48 0.47 0.51 0.52 0.51 0.51 0.50 0.51 0.55 0.58 0.58 0.56 0.57 0.59 0.59 0.58 0.58 0.57 0.56 0.57 0.58 0.59
1.12 1.10 1.10 1.08 1.11 1.14 1.12 1.09 1.07 1.05 1.04 0.91 0.73 0.65 0.70 0.69 0.65 0.60 0.55 0.53 0.53 0.52 0.50 0.50 0.51 0.51 0.51 0.51 0.52 0.52 0.52 0.51 0.53 0.56 0.57 0.56 0.55 0.54 0.54 0.55 0.58 0.59
1.09 1.14 1.15 1.14 1.16 1.15 1.14 1.12 1.08 1.06 1.04 0.89 0.77 0.72 0.73 0.73 0.71 0.63 0.59 0.57 0.56 0.56 0.54 0.49 0.49 0.50 0.51 0.52 0.52 0.52 0.51 0.49 0.48 0.51 0.53 0.54 0.54 0.55 0.56 0.55 0.56 0.58
1.19 1.19 1.18 1.18 1.16 1.17 1.16 1.13 1.10 1.08 1.03 0.91 0.84 0.78 0.76 0.77 0.76 0.70 0.64 0.60 0.59 0.58 0.59 0.59 0.57 0.54 0.53 0.53 0.53 0.53 0.53 0.51 0.50 0.51 0.54 0.56 0.59 0.60 0.61 0.61 0.60 0.60
1.18 1.16 1.18 1.19 1.17 1.16 1.14 1.12 1.10 1.10 1.06 0.96 0.90 0.86 0.83 0.81 0.79 0.75 0.68 0.64 0.62 0.60 0.60 0.61 0.62 0.62 0.59 0.54 0.52 0.54 0.55 0.53 0.55 0.56 0.59 0.60 0.62 0.63 0.64 0.64 0.64 0.65
1.18 1.17 1.18 1.18 1.15 1.13 1.13 1.13 1.11 1.10 1.07 1.00 0.96 0.95 0.91 0.88 0.83 0.80 0.74 0.68 0.66 0.64 0.63 0.62 0.62 0.64 0.65 0.63 0.57 0.55 0.57 0.57 0.58 0.60 0.61 0.62 0.63 0.63 0.63 0.64 0.66 0.66
1.14 1.13 1.14 1.12 1.17 1.13 1.11 1.13 1.10 1.10 1.09 1.02 0.99 1.01 0.98 0.95 0.91 0.83 0.77 0.74 0.72 0.70 0.68 0.65 0.65 0.66 0.66 0.67 0.64 0.61 0.59 0.59 0.59 0.60 0.62 0.62 0.63 0.63 0.63 0.64 0.65 0.67
1.10 1.11 1.12 1.09 1.12 1.12 1.10 1.09 1.11 1.11 1.08 1.03 1.00 1.01 1.02 1.00 0.96 0.93 0.89 0.84 0.80 0.78 0.75 0.73 0.71 0.71 0.69 0.68 0.67 0.65 0.65 0.63 0.60 0.59 0.60 0.61 0.62 0.63 0.64 0.65 0.65 0.65
0.98 1.01 1.03 1.02 1.02 1.04 1.07 1.08 1.07 1.07 1.08 1.07 1.05 1.05 1.02 0.97 0.94 0.96 0.98 0.95 0.89 0.83 0.81 0.81 0.80 0.79 0.77 0.75 0.73 0.70 0.69 0.69 0.67 0.66 0.61 0.58 0.59 0.60 0.61 0.62 0.64 0.65
0.88 0.91 0.90 0.89 0.90 0.91 0.93 0.95 0.94 0.95 1.00 1.03 1.04 1.02 0.98 0.96 0.94 0.93 0.96 0.98 0.98 0.93 0.88 0.86 0.84 0.85 0.83 0.81 0.79 0.77 0.75 0.73 0.72 0.71 0.69 0.67 0.64 0.61 0.59 0.59 0.59 0.59
0.81 0.82 0.82 0.82 0.82 0.84 0.85 0.85 0.85 0.85 0.86 0.87 0.89 0.90 0.90 0.87 0.87 0.91 0.95 0.96 0.97 0.97 0.94 0.91 0.90 0.90 0.88 0.86 0.85 0.83 0.81 0.79 0.77 0.76 0.75 0.74 0.73 0.72 0.72 0.70 0.68 0.66
0.76 0.77 0.77 0.78 0.78 0.79 0.80 0.80 0.81 0.80 0.79 0.80 0.80 0.82 0.84 0.83 0.83 0.85 0.86 0.86 0.88 0.89 0.89 0.89 0.93 0.95 0.94 0.92 0.90 0.89 0.88 0.87 0.85 0.82 0.79 0.77 0.77 0.78 0.78 0.79 0.80 0.79
0.72 0.72 0.73 0.72 0.72 0.73 0.73 0.74 0.74 0.76 0.77 0.78 0.77 0.78 0.79 0.80 0.82 0.83 0.82 0.82 0.82 0.81 0.81 0.82 0.86 0.91 0.93 0.94 0.95 0.95 0.92 0.89 0.87 0.84 0.82 0.79 0.77 0.77 0.78 0.79 0.81 0.81
0.72 0.70 0.69 0.69 0.69 0.70 0.71 0.72 0.74 0.75 0.76 0.77 0.75 0.76 0.76 0.77 0.79 0.79 0.79 0.78 0.78 0.78 0.78 0.76 0.76 0.80 0.80 0.81 0.83 0.86 0.88 0.88 0.89 0.86 0.83 0.81 0.79 0.81 0.82 0.83 0.83 0.81
0.73 0.72 0.70 0.69 0.69 0.69 0.70 0.69 0.70 0.71 0.72 0.72 0.72 0.72 0.72 0.73 0.73 0.72 0.71 0.71 0.70 0.71 0.71 0.70 0.71 0.75 0.77 0.76 0.76 0.78 0.80 0.82 0.83 0.84 0.82 0.83 0.83 0.83 0.87 0.89 0.92 0.93
0.77 0.75 0.73 0.70 0.68 0.66 0.65 0.64 0.64 0.64 0.64 0.64 0.64 0.64 0.63 0.63 0.63 0.63 0.63 0.63 0.64 0.64 0.64 0.64 0.64 0.66 0.70 0.72 0.73 0.73 0.75 0.76 0.78 0.77 0.76 0.78 0.82 0.83 0.82 0.85 0.88 0.88

ECMWFNIL_prec_pwat_042.txt.gz
Precipitable_Water
0.99 0.99 0.96 0.93 0.97 1.00 0.98 0.95 0.92 0.88 0.89 0.92 0.92 0.94 0.91 0.87 0.83 0.80 0.79 0.77 0.77 0.80 0.80 0.83 0.86 0.86 0.86 0.88 0.98 1.03 1.03 1.01 1.02 1.02 0.99 0.95 0.92 0.93 0.94 0.98 1.00 1.00
1.01 1.02 1.01 0.99 1.01 1.02 1.01 0.98 0.92 0.90 0.90 0.93 0.96 0.96 0.95 0.91 0.84 0.78 0.77 0.77 0.76 0.77 0.79 0.82 0.83 0.83 0.82 0.82 0.90 0.98 0.98 0.95 0.91 0.94 0.88 0.86 0.85 0.87 0.90 0.94 0.97 0.99
1.03 1.03 1.01 0.98 0.98 0.98 0.99 0.98 0.96 0.95 0.93 0.94 0.97 0.98 0.95 0.95 0.86 0.81 0.78 0.77 0.76 0.76 0.77 0.79 0.80 0.80 0.78 0.79 0.82 0.87 0.89 0.89 0.87 0.89 0.87 0.84 0.84 0.83 0.86 0.89 0.90 0.92
1.05 1.04 1.01 1.00 1.01 1.00 1.00 0.96 0.98 0.97 0.96 0.94 0.96 0.97 0.96 0.93 0.89 0.82 0.80 0.77 0.76 0.76 0.78 0.81 0.79 0.78 0.75 0.75 0.79 0.81 0.83 0.84 0.87 0.89 0.85 0.85 0.85 0.85 0.86 0.88 0.90 0.90
1.04 1.03 1.04 1.06 1.07 1.04 1.01 0.94 0.96 0.96 0.95 0.96 0.98 0.98 0.95 0.92 0.86 0.81 0.78 0.76 0.75 0.74 0.76 0.79 0.77 0.72 0.71 0.72 0.77 0.77 0.79 0.80 0.83 0.85 0.83 0.82 0.85 0.87 0.88 0.90 0.91 0.93
1.06 1.06 1.09 1.11 1.07 1.00 0.94 0.91 0.94 0.96 0.97 0.97 0.99 1.00 0.95 0.91 0.84 0.78 0.76 0.72 0.71 0.70 0.71 0.75 0.72 0.67 0.64 0.66 0.72 0.74 0.75 0.76 0.77 0.74 0.75 0.77 0.81 0.86 0.88 0.89 0.90 0.92
1.07 1.05 1.08 1.11 1.05 0.95 0.88 0.90 0.93 0.96 0.98 1.00 1.02 0.98 0.95 0.88 0.80 0.76 0.75 0.70 0.66 0.62 0.64 0.69 0.67 0.62 0.58 0.62 0.67 0.68 0.70 0.70 0.70 0.70 0.69 0.71 0.72 0.74 0.80 0.84 0.85 0.88
1.08 1.06 1.08 1.09 1.01 0.92 0.89 0.91 0.93 0.97 1.00 1.01 1.00 0.98 0.93 0.84 0.75 0.74 0.73 0.68 0.63 0.57 0.59 0.62 0.60 0.57 0.54 0.58 0.61 0.65 0.68 0.71 0.70 0.69 0.66 0.66 0.67 0.67 0.70 0.73 0.77 0.81
1.11 1.06 1.07 1.06 1.01 0.96 0.96 0.95 0.96 0.98 1.00 0.99 0.99 0.94 0.87 0.78 0.73 0.72 0.69 0.64 0.59 0.57 0.57 0.57 0.56 0.54 0.51 0.55 0.57 0.59 0.62 0.65 0.69 0.70 0.65 0.62 0.62 0.64 0.63 0.63 0.64 0.72
1.11 1.08 1.06 1.05 1.02 1.02 1.00 1.00 1.00 1.00 1.00 0.99 0.96 0.88 0.77 0.73 0.71 0.66 0.61 0.57 0.54 0.54 0.55 0.55 0.54 0.51 0.50 0.52 0.55 0.57 0.57 0.60 0.64 0.68 0.66 0.63 0.61 0.62 0.61 0.61 0.60 0.63
1.11 1.11 1.09 1.07 1.05 1.05 1.04 1.05 1.05 1.03 1.01 0.98 0.92 0.83 0.76 0.71 0.66 0.62 0.58 0.55 0.51 0.50 0.51 0.50 0.50 0.51 0.49 0.49 0.53 0.56 0.57 0.58 0.61 0.64 0.66 0.63 0.62 0.60 0.59 0.59 0.59 0.61
1.12 1.11 1.08 1.07 1.07 1.06 1.06 1.08 1.07 1.04 1.02 0.99 0.92 0.83 0.78 0.74 0.67 0.64 0.60 0.57 0.54 0.50 0.48 0.48 0.50 0.51 0.50 0.49 0.51 0.53 0.56 0.58 0.58 0.59 0.62 0.62 0.60 0.59 0.57 0.55 0.58 0.60
1.12 1.10 1.10 1.10 1.09 1.09 1.10 1.10 1.09 1.06 1.05 1.01 0.94 0.88 0.83 0.76 0.68 0.65 0.62 0.58 0.57 0.55 0.52 0.51 0.51 0.51 0.51 0.52 0.52 0.52 0.52 0.51 0.50 0.51 0.55 0.59 0.59 0.58 0.56 0.54 0.55 0.60
1.11 1.13 1.13 1.14 1.13 1.12 1.14 1.15 1.14 1.12 1.10 1.07 0.99 0.90 0.86 0.80 0.73 0.70 0.67 0.63 0.60 0.58 0.57 0.58 0.56 0.54 0.53 0.53 0.53 0.52 0.51 0.52 0.52 0.49 0.51 0.56 0.58 0.57 0.56 0.54 0.55 0.58
1.15 1.16 1.18 1.17 1.16 1.14 1.13 1.15 1.14 1.13 1.13 1.12 1.06 0.96 0.89 0.82 0.79 0.77 0.72 0.67 0.64 0.63 0.62 0.63 0.62 0.61 0.60 0.58 0.54 0.53 0.54 0.53 0.54 0.53 0.52 0.54 0.57 0.59 0.60 0.60 0.58 0.59
1.16 1.18 1.18 1.19 1.17 1.11 1.11 1.15 1.12 1.11 1.12 1.11 1.08 1.02 0.92 0.86 0.82 0.81 0.78 0.74 0.69 0.66 0.64 0.63 0.63 0.64 0.64 0.64 0.62 0.58 0.56 0.56 0.57 0.57 0.57 0.58 0.60 0.62 0.63 0.64 0.65 0.65
1.16 1.16 1.14 1.12 1.12 1.14 1.14 1.13 1.13 1.12 1.11 1.10 1.07 1.02 0.94 0.91 0.89 0.87 0.84 0.80 0.73 0.68 0.64 0.63 0.64 0.66 0.66 0.66 0.67 0.67 0.63 0.58 0.57 0.59 0.59 0.60 0.61 0.62 0.63 0.65 0.66 0.68
1.10 1.08 1.10 1.10 1.09 1.10 1.11 1.12 1.12 1.11 1.10 1.10 1.09 1.04 0.98 0.96 0.93 0.93 0.91 0.88 0.83 0.78 0.72 0.70 0.69 0.70 0.69 0.69 0.69 0.68 0.68 0.66 0.64 0.61 0.60 0.59 0.59 0.60 0.61 0.63 0.65 0.67
1.06 1.07 1.03 1.01 1.06 1.09 1.09 1.09 1.07 1.06 1.06 1.06 1.05 1.03 0.99 0.94 0.92 0.92 0.92 0.94 0.92 0.88 0.85 0.83 0.79 0.79 0.78 0.76 0.73 0.71 0.69 0.69 0.68 0.67 0.65 0.64 0.63 0.62 0.61 0.61 0.63 0.64
0.98 0.98 0.99 0.98 0.97 1.00 1.02 1.01 0.99 0.98 0.99 1.01 1.01 0.99 0.94 0.90 0.89 0.89 0.90 0.91 0.93 0.93 0.92 0.91 0.88 0.87 0.84 0.82 0.80 0.79 0.77 0.74 0.70 0.69 0.68 0.67 0.66 0.66 0.66 0.65 0.65 0.63
0.88 0.89 0.87 0.91 0.94 0.94 0.93 0.91 0.90 0.92 0.93 0.94 0.94 0.93 0.90 0.87 0.87 0.87 0.86 0.85 0.87 0.89 0.90 0.89 0.89 0.89 0.88 0.87 0.85 0.84 0.82 0.81 0.78 0.76 0.72 0.70 0.70 0.69 0.69 0.68 0.69 0.69
0.82 0.82 0.84 0.86 0.87 0.88 0.87 0.85 0.85 0.86 0.87 0.88 0.88 0.89 0.88 0.87 0.87 0.85 0.83 0.82 0.82 0.83 0.84 0.84 0.85 0.86 0.85 0.85 0.86 0.87 0.87 0.86 0.84 0.82 0.79 0.77 0.75 0.74 0.72 0.72 0.71 0.70
0.75 0.76 0.77 0.79 0.80 0.80 0.80 0.81 0.81 0.81 0.82 0.82 0.81 0.82 0.82 0.83 0.83 0.82 0.81 0.81 0.81 0.83 0.83 0.81 0.81 0.81 0.79 0.79 0.79 0.80 0.81 0.81 0.82 0.81 0.81 0.80 0.80 0.82 0.83 0.82 0.82 0.80
0.74 0.74 0.74 0.75 0.75 0.76 0.76 0.77 0.77 0.78 0.78 0.80 0.77 0.77 0.76 0.78 0.78 0.78 0.79 0.79 0.79 0.79 0.80 0.77 0.75 0.75 0.75 0.76 0.76 0.77 0.77 0.77 0.77 0.76 0.77 0.79 0.81 0.85 0.87 0.88 0.88 0.89
0.76 0.76 0.76 0.75 0.75 0.74 0.73 0.72 0.72 0.73 0.73 0.74 0.74 0.74 0.75 0.75 0.75 0.73 0.73 0.74 0.75 0.75 0.74 0.73 0.72 0.72 0.72 0.72 0.72 0.72 0.72 0.73 0.73 0.72 0.70 0.71 0.73 0.74 0.78 0.80 0.82 0.85
0.78 0.76 0.76 0.75 0.74 0.74 0.73 0.72 0.71 0.69 0.68 0.67 0.67 0.68 0.68 0.68 0.68 0.68 0.67 0.68 0.69 0.69 0.68 0.69 0.68 0.68 0.69 0.69 0.70 0.69 0.69 0.69 0.70 0.69 0.67 0.69 0.72 0.73 0.73 0.75 0.79 0.81

ECMWFNIL_prec_pwat_045.txt.gz
Precipitable_Water
1.08 1.04 0.97 0.97 0.97 0.97 0.96 0.95 0.97 0.97 0.97 0.97 0.94 0.95 0.95 0.92 0.90 0.88 0.85 0.83 0.87 0.89 0.89 0.90 0.91 0.90 0.90 0.90 0.92 0.97 1.01 1.06 1.08 1.09 1.07 1.09 1.07 1.06 1.04 1.05 1.07 1.08
1.03 1.02 0.99 0.99 0.99 0.99 1.00 1.02 1.00 0.99 0.98 0.98 0.97 0.98 0.99 0.94 0.89 0.88 0.85 0.84 0.85 0.86 0.87 0.87 0.88 0.88 0.86 0.85 0.90 0.97 0.98 1.00 0.99 1.04 1.03 1.00 1.00 0.98 0.98 1.01 1.04 1.09
1.02 1.01 1.01 0.97 0.97 0.98 1.01 1.05 1.04 1.03 1.01 1.00 0.99 0.99 0.98 0.95 0.88 0.87 0.88 0.86 0.83 0.84 0.85 0.86 0.86 0.86 0.83 0.84 0.86 0.93 0.95 0.94 0.92 0.95 0.94 0.91 0.90 0.89 0.92 0.97 1.01 1.04
1.03 1.05 1.04 1.01 1.00 0.98 1.02 1.02 1.03 1.04 1.03 0.99 0.98 1.01 1.00 0.95 0.90 0.86 0.85 0.85 0.83 0.82 0.83 0.85 0.85 0.83 0.81 0.81 0.82 0.85 0.89 0.88 0.87 0.87 0.85 0.87 0.88 0.88 0.89 0.92 0.95 0.98
1.08 1.08 1.06 1.02 1.01 1.01 1.02 1.02 1.01 1.03 1.03 1.03 1.02 1.01 1.00 0.95 0.89 0.84 0.82 0.82 0.82 0.79 0.81 0.83 0.82 0.79 0.77 0.78 0.80 0.79 0.81 0.80 0.82 0.84 0.84 0.85 0.88 0.89 0.90 0.92 0.91 0.92
1.12 1.09 1.04 1.02 1.03 1.02 1.01 0.99 1.01 1.03 1.04 1.04 1.02 1.02 1.00 0.96 0.89 0.83 0.82 0.79 0.76 0.75 0.77 0.80 0.76 0.72 0.69 0.75 0.78 0.77 0.76 0.75 0.75 0.76 0.78 0.82 0.86 0.90 0.91 0.93 0.93 0.94
1.10 1.07 1.04 1.06 1.06 1.05 1.00 0.99 1.02 1.04 1.05 1.06 1.05 1.02 1.01 0.95 0.89 0.83 0.81 0.78 0.72 0.70 0.72 0.73 0.69 0.63 0.62 0.69 0.72 0.70 0.68 0.68 0.68 0.68 0.69 0.73 0.78 0.82 0.88 0.91 0.93 0.95
1.12 1.10 1.08 1.09 1.09 1.04 0.97 0.98 1.01 1.01 1.02 1.01 1.00 1.02 1.00 0.94 0.87 0.83 0.80 0.76 0.69 0.65 0.70 0.70 0.64 0.60 0.58 0.62 0.66 0.67 0.68 0.70 0.70 0.67 0.67 0.69 0.73 0.75 0.80 0.85 0.91 0.95
1.15 1.10 1.11 1.13 1.10 1.02 0.96 0.98 1.00 0.99 0.99 0.98 0.99 0.99 0.97 0.91 0.84 0.82 0.79 0.74 0.67 0.65 0.67 0.65 0.62 0.57 0.56 0.59 0.61 0.63 0.63 0.67 0.70 0.68 0.65 0.64 0.67 0.70 0.72 0.77 0.81 0.90
1.13 1.11 1.09 1.12 1.07 1.02 0.98 0.99 0.99 0.98 0.99 0.99 0.99 0.98 0.90 0.86 0.84 0.81 0.76 0.70 0.65 0.63 0.63 0.62 0.60 0.55 0.53 0.57 0.59 0.60 0.61 0.62 0.66 0.67 0.64 0.62 0.62 0.64 0.66 0.69 0.73 0.82
1.12 1.12 1.10 1.10 1.07 1.05 1.01 1.01 1.01 1.00 1.00 0.98 0.95 0.90 0.86 0.82 0.79 0.76 0.70 0.66 0.63 0.62 0.61 0.60 0.58 0.54 0.51 0.53 0.58 0.61 0.61 0.61 0.62 0.65 0.64 0.63 0.62 0.63 0.65 0.67 0.69 0.77
1.13 1.13 1.11 1.09 1.07 1.07 1.05 1.03 1.03 1.01 1.00 0.97 0.92 0.86 0.84 0.82 0.78 0.76 0.72 0.65 0.61 0.59 0.58 0.57 0.55 0.54 0.51 0.51 0.55 0.59 0.60 0.59 0.60 0.63 0.65 0.63 0.63 0.64 0.64 0.67 0.68 0.73
1.11 1.13 1.13 1.10 1.10 1.09 1.08 1.07 1.05 1.02 0.99 0.94 0.94 0.90 0.87 0.84 0.83 0.81 0.78 0.70 0.62 0.57 0.54 0.54 0.54 0.53 0.52 0.52 0.53 0.55 0.56 0.57 0.56 0.57 0.61 0.64 0.62 0.61 0.61 0.62 0.65 0.67
1.15 1.14 1.12 1.11 1.14 1.15 1.11 1.09 1.06 1.03 0.99 0.97 0.97 0.94 0.91 0.89 0.86 0.85 0.82 0.76 0.68 0.62 0.59 0.58 0.56 0.52 0.51 0.52 0.53 0.54 0.54 0.55 0.55 0.52 0.53 0.58 0.60 0.60 0.59 0.57 0.60 0.64
1.17 1.17 1.16 1.16 1.20 1.16 1.12 1.09 1.09 1.07 1.04 1.00 0.98 0.98 0.97 0.96 0.93 0.90 0.85 0.79 0.74 0.67 0.64 0.65 0.64 0.62 0.61 0.60 0.57 0.54 0.55 0.53 0.53 0.52 0.50 0.51 0.54 0.57 0.57 0.55 0.56 0.62
1.16 1.16 1.16 1.19 1.18 1.16 1.13 1.16 1.15 1.14 1.10 1.05 1.03 1.02 1.01 1.02 0.98 0.94 0.87 0.80 0.75 0.70 0.68 0.67 0.66 0.66 0.63 0.62 0.60 0.60 0.59 0.56 0.56 0.56 0.54 0.53 0.53 0.55 0.57 0.59 0.59 0.60
1.16 1.17 1.18 1.17 1.18 1.18 1.18 1.14 1.14 1.15 1.10 1.10 1.11 1.10 1.06 1.05 1.03 0.97 0.90 0.85 0.80 0.76 0.72 0.71 0.70 0.69 0.67 0.65 0.64 0.63 0.61 0.59 0.59 0.59 0.59 0.59 0.60 0.62 0.62 0.62 0.63 0.64
1.11 1.13 1.13 1.16 1.18 1.17 1.16 1.16 1.11 1.12 1.11 1.11 1.09 1.06 1.06 1.05 1.00 0.97 0.93 0.90 0.86 0.83 0.79 0.77 0.75 0.74 0.73 0.70 0.68 0.65 0.64 0.64 0.62 0.60 0.62 0.63 0.64 0.64 0.64 0.65 0.65 0.66
1.07 1.08 1.08 1.06 1.07 1.06 1.07 1.07 1.07 1.06 1.06 1.05 1.03 1.04 1.04 1.00 0.98 0.95 0.93 0.92 0.89 0.84 0.82 0.81 0.79 0.78 0.77 0.76 0.74 0.72 0.68 0.66 0.65 0.65 0.63 0.63 0.63 0.64 0.65 0.66 0.66 0.65
1.05 1.05 1.06 1.06 1.05 1.04 1.03 1.03 1.03 1.02 1.02 1.01 1.01 1.01 1.00 0.98 0.97 0.93 0.91 0.91 0.92 0.90 0.86 0.84 0.83 0.83 0.81 0.79 0.77 0.76 0.76 0.75 0.73 0.70 0.68 0.67 0.67 0.67 0.67 0.67 0.67 0.66
0.97 0.97 0.98 0.99 1.01 1.01 1.01 1.01 1.00 0.98 0.97 0.97 0.98 0.98 0.97 0.96 0.94 0.91 0.90 0.90 0.91 0.92 0.90 0.88 0.85 0.85 0.85 0.84 0.83 0.81 0.80 0.80 0.81 0.80 0.79 0.78 0.77 0.76 0.75 0.74 0.74 0.73
0.89 0.91 0.91 0.93 0.93 0.93 0.93 0.94 0.95 0.96 0.94 0.94 0.94 0.94 0.95 0.94 0.93 0.91 0.90 0.88 0.88 0.89 0.89 0.89 0.89 0.89 0.88 0.86 0.85 0.85 0.86 0.86 0.83 0.81 0.80 0.82 0.83 0.85 0.86 0.86 0.85 0.82
0.86 0.85 0.86 0.87 0.89 0.90 0.90 0.89 0.89 0.89 0.88 0.89 0.88 0.88 0.89 0.90 0.91 0.90 0.89 0.88 0.87 0.87 0.86 0.86 0.86 0.86 0.86 0.85 0.84 0.84 0.84 0.85 0.85 0.85 0.84 0.82 0.82 0.83 0.84 0.85 0.86 0.87
0.81 0.81 0.82 0.82 0.83 0.84 0.84 0.84 0.84 0.84 0.83 0.83 0.81 0.81 0.81 0.83 0.85 0.84 0.85 0.85 0.84 0.82 0.81 0.80 0.80 0.80 0.79 0.79 0.79 0.79 0.80 0.80 0.80 0.78 0.78 0.80 0.82 0.84 0.84 0.84 0.84 0.83
0.76 0.77 0.77 0.75 0.75 0.75 0.76 0.75 0.77 0.77 0.78 0.78 0.77 0.77 0.76 0.77 0.77 0.76 0.77 0.78 0.78 0.77 0.76 0.76 0.76 0.76 0.75 0.74 0.73 0.73 0.73 0.74 0.73 0.72 0.70 0.71 0.72 0.73 0.77 0.78 0.81 0.82
0.70 0.70 0.73 0.74 0.73 0.74 0.74 0.74 0.73 0.71 0.70 0.70 0.69 0.68 0.68 0.67 0.67 0.67 0.66 0.67 0.68 0.68 0.67 0.67 0.65 0.66 0.65 0.65 0.64 0.63 0.62 0.63 0.64 0.61 0.60 0.61 0.63 0.62 0.62 0.66 0.69 0.71

ECMWFNIL_prec_pwat_048.txt.gz
Precipitable_Water
1.15 1.09 1.06 1.05 1.03 1.03 1.04 1.05 1.07 1.04 1.07 1.05 1.01 0.98 0.97 0.98 0.97 0.97 0.95 0.93 0.96 0.99 0.99 0.98 0.98 0.94 0.93 0.93 0.97 1.05 1.12 1.09 1.09 1.10 1.09 1.09 1.09 1.08 1.05 1.05 1.06 1.07
1.10 1.05 1.04 1.06 1.02 1.03 1.06 1.08 1.06 1.07 1.07 1.06 1.05 1.03 1.02 0.98 0.99 0.99 0.95 0.94 0.98 0.99 0.99 0.99 0.96 0.93 0.89 0.89 0.91 0.99 1.05 1.07 1.04 1.08 1.07 1.05 1.08 1.07 1.06 1.07 1.07 1.07
1.10 1.07 1.05 1.02 1.00 0.97 1.03 1.07 1.09 1.09 1.08 1.10 1.07 1.06 0.99 0.99 0.96 0.98 0.95 0.99 0.98 1.00 0.96 0.94 0.94 0.91 0.88 0.89 0.92 1.02 1.07 1.02 0.99 1.03 1.04 1.02 1.04 1.01 1.01 1.05 1.05 1.06
1.11 1.08 1.03 1.02 1.01 1.00 1.06 1.08 1.09 1.11 1.13 1.11 1.07 1.05 1.01 0.98 0.96 0.94 0.95 0.94 0.96 0.95 0.95 0.93 0.93 0.89 0.86 0.87 0.88 0.97 1.02 0.98 0.99 0.97 0.95 0.97 0.95 0.96 0.96 0.99 0.99 1.02
1.12 1.07 1.07 1.04 1.02 1.06 1.09 1.08 1.08 1.11 1.10 1.10 1.11 1.08 1.02 0.97 0.94 0.95 0.94 0.93 0.92 0.92 0.92 0.92 0.88 0.84 0.82 0.84 0.85 0.92 0.95 0.94 0.95 0.91 0.89 0.88 0.90 0.92 0.91 0.92 0.92 0.93
1.15 1.11 1.10 1.06 1.05 1.07 1.08 1.07 1.08 1.11 1.12 1.11 1.09 1.09 1.05 0.99 0.96 0.94 0.94 0.92 0.90 0.87 0.91 0.88 0.86 0.82 0.83 0.84 0.83 0.88 0.86 0.88 0.92 0.87 0.92 0.89 0.86 0.89 0.89 0.90 0.90 0.89
1.14 1.11 1.11 1.10 1.09 1.08 1.07 1.07 1.10 1.13 1.14 1.12 1.11 1.10 1.07 1.01 0.95 0.94 0.92 0.90 0.87 0.85 0.86 0.84 0.81 0.77 0.81 0.80 0.81 0.82 0.82 0.80 0.78 0.77 0.82 0.85 0.88 0.88 0.86 0.89 0.92 0.93
1.14 1.13 1.13 1.13 1.11 1.08 1.07 1.08 1.10 1.11 1.15 1.14 1.10 1.11 1.08 1.02 0.97 0.96 0.92 0.89 0.84 0.85 0.84 0.81 0.74 0.70 0.74 0.77 0.73 0.71 0.70 0.71 0.71 0.72 0.72 0.73 0.76 0.79 0.83 0.88 0.91 0.94
1.21 1.17 1.15 1.12 1.13 1.09 1.05 1.06 1.09 1.12 1.16 1.12 1.11 1.09 1.09 1.01 0.97 0.93 0.92 0.88 0.82 0.83 0.82 0.75 0.69 0.66 0.70 0.73 0.74 0.73 0.71 0.71 0.71 0.71 0.70 0.69 0.71 0.73 0.76 0.82 0.87 0.94
1.25 1.21 1.14 1.16 1.15 1.10 1.05 1.06 1.08 1.11 1.13 1.14 1.10 1.08 1.02 0.98 0.93 0.93 0.89 0.84 0.81 0.81 0.77 0.71 0.66 0.62 0.66 0.70 0.71 0.72 0.71 0.71 0.70 0.69 0.70 0.70 0.68 0.68 0.70 0.77 0.85 0.91
1.23 1.20 1.14 1.14 1.13 1.12 1.07 1.10 1.09 1.10 1.12 1.11 1.08 1.03 0.96 0.91 0.92 0.92 0.86 0.83 0.79 0.78 0.74 0.70 0.64 0.60 0.61 0.65 0.68 0.71 0.71 0.72 0.72 0.70 0.69 0.69 0.68 0.66 0.68 0.72 0.81 0.91
1.18 1.15 1.08 1.05 1.07 1.15 1.10 1.10 1.08 1.08 1.08 1.08 1.02 0.93 0.89 0.88 0.85 0.84 0.83 0.80 0.79 0.78 0.75 0.70 0.65 0.61 0.58 0.59 0.65 0.68 0.69 0.71 0.73 0.72 0.69 0.67 0.66 0.68 0.68 0.71 0.76 0.89
1.20 1.13 1.11 1.09 1.09 1.15 1.15 1.10 1.08 1.06 1.03 0.98 0.94 0.90 0.88 0.85 0.85 0.84 0.82 0.80 0.77 0.75 0.70 0.66 0.62 0.60 0.59 0.57 0.60 0.64 0.65 0.66 0.68 0.71 0.71 0.70 0.68 0.68 0.69 0.70 0.74 0.82
1.21 1.25 1.16 1.11 1.10 1.15 1.15 1.12 1.08 1.03 0.97 0.92 0.92 0.91 0.91 0.90 0.88 0.87 0.86 0.81 0.76 0.74 0.72 0.69 0.63 0.60 0.60 0.58 0.57 0.59 0.61 0.61 0.61 0.63 0.70 0.72 0.72 0.71 0.71 0.72 0.74 0.79
1.20 1.21 1.18 1.13 1.14 1.17 1.15 1.13 1.08 1.01 0.94 0.93 0.93 0.93 0.93 0.92 0.93 0.91 0.88 0.86 0.83 0.79 0.74 0.73 0.72 0.69 0.67 0.67 0.63 0.60 0.61 0.61 0.61 0.60 0.63 0.69 0.70 0.70 0.69 0.69 0.72 0.76
1.18 1.16 1.15 1.13 1.15 1.17 1.16 1.15 1.10 1.05 1.03 1.01 0.99 0.98 0.98 0.97 0.95 0.95 0.94 0.93 0.90 0.84 0.81 0.76 0.71 0.62 0.56 0.54 0.58 0.66 0.66 0.64 0.62 0.64 0.60 0.63 0.64 0.65 0.62 0.64 0.70 0.73
1.17 1.17 1.16 1.14 1.16 1.17 1.18 1.14 1.10 1.07 1.05 1.02 1.01 1.00 0.99 0.99 1.00 0.99 0.99 0.99 0.97 0.89 0.82 0.76 0.71 0.66 0.61 0.58 0.57 0.55 0.61 0.62 0.63 0.64 0.63 0.63 0.63 0.62 0.60 0.59 0.63 0.71
1.18 1.15 1.14 1.13 1.14 1.14 1.13 1.12 1.08 1.06 1.03 1.02 1.03 1.03 1.03 1.08 1.10 1.10 1.10 1.05 0.98 0.92 0.86 0.82 0.76 0.70 0.66 0.62 0.60 0.59 0.57 0.63 0.63 0.64 0.63 0.64 0.66 0.67 0.67 0.66 0.65 0.67
1.15 1.18 1.16 1.13 1.13 1.11 1.14 1.14 1.12 1.10 1.09 1.09 1.10 1.12 1.13 1.11 1.10 1.09 1.04 1.00 0.93 0.87 0.85 0.84 0.80 0.77 0.75 0.72 0.68 0.64 0.62 0.62 0.68 0.66 0.64 0.64 0.64 0.65 0.69 0.69 0.69 0.68
1.10 1.12 1.12 1.13 1.15 1.16 1.15 1.14 1.10 1.09 1.11 1.11 1.13 1.13 1.11 1.09 1.07 1.04 1.01 0.95 0.90 0.86 0.84 0.84 0.83 0.81 0.79 0.80 0.79 0.78 0.75 0.73 0.74 0.68 0.69 0.67 0.65 0.67 0.67 0.68 0.68 0.67
1.06 1.06 1.08 1.06 1.06 1.06 1.05 1.06 1.06 1.05 1.05 1.07 1.09 1.08 1.06 1.03 1.03 1.00 0.99 0.99 0.95 0.91 0.87 0.85 0.84 0.84 0.83 0.82 0.83 0.83 0.84 0.82 0.85 0.81 0.79 0.77 0.74 0.74 0.72 0.73 0.73 0.71
1.05 1.04 1.06 1.08 1.08 1.07 1.06 1.06 1.07 1.07 1.06 1.04 1.04 1.03 1.04 1.04 1.02 1.02 0.99 0.99 0.99 0.95 0.92 0.88 0.88 0.87 0.86 0.84 0.84 0.87 0.90 0.90 0.87 0.85 0.84 0.85 0.86 0.85 0.83 0.84 0.83 0.81
1.03 1.02 1.02 1.03 1.03 1.02 1.01 1.03 1.03 1.03 1.03 1.03 1.01 1.00 0.98 0.98 0.98 0.98 0.99 0.98 0.97 0.96 0.92 0.91 0.90 0.90 0.90 0.91 0.90 0.91 0.95 0.91 0.92 0.89 0.88 0.86 0.85 0.83 0.83 0.84 0.86 0.87
0.95 0.95 0.95 0.95 0.95 0.94 0.93 0.94 0.97 0.98 0.99 1.00 0.97 0.97 0.95 0.97 0.96 0.96 0.97 0.96 0.96 0.96 0.96 0.92 0.91 0.90 0.90 0.90 0.89 0.89 0.91 0.93 0.91 0.88 0.89 0.88 0.89 0.92 0.91 0.90 0.90 0.81
0.89 0.87 0.86 0.87 0.87 0.87 0.88 0.87 0.88 0.89 0.91 0.92 0.91 0.90 0.89 0.89 0.90 0.88 0.89 0.89 0.89 0.89 0.89 0.91 0.89 0.86 0.85 0.84 0.82 0.80 0.79 0.83 0.81 0.79 0.80 0.81 0.81 0.81 0.85 0.85 0.89 0.89
0.79 0.79 0.80 0.78 0.76 0.77 0.79 0.80 0.83 0.84 0.82 0.81 0.80 0.79 0.78 0.78 0.77 0.76 0.75 0.75 0.77 0.77 0.76 0.76 0.76 0.75 0.70 0.69 0.68 0.67 0.67 0.68 0.72 0.68 0.68 0.67 0.67 0.68 0.67 0.70 0.74 0.77